M I D A S
Marine Information and Data Acquisition System
Tripno 1806 of the Zeeleeuw from 2009-11-13 07:18:30 to 2009-11-13 14:55:55
Back to CruiseResearch ActivitiesStationsMapUnderway DataData graphs

EquipmentUnitsComment
TimeDGPSUTC
LatitudeDGPSDM.mWGS84
LongitudeDGPSDM.mWGS84
TemperatureSBE03/SBE38deg celciusITS90
ConductivitySBE21S/mITS90
SalinitySBE21 Practical Salinity Units
ChlorophylAChelsea fluorimeterg/lCalibrated in Aceton
Missing or incorrect values are displayed as -999
Sea surface data collected by the RV Zeeleeuw from 2009-11-13 07:26:55 to 2009-11-16 12:52:53
                                                                                    Next 1000 lines
Time Latitude Longitude Temperature Conductivity Salinity ChlorophylA
2009-11-13 07:27:05 51°13.661 2°55.957 16.6939 0.074522 0.437594 -1.313985
2009-11-13 07:27:10 51°13.662 2°55.955 16.6871 0.074625 0.43822 -1.313985
2009-11-13 07:27:15 51°13.663 2°55.952 16.6646 0.074522 0.437594 -1.313985
2009-11-13 07:27:20 51°13.664 2°55.948 16.7307 0.074522 0.437594 -1.313985
2009-11-13 07:27:25 51°13.665 2°55.944 16.724 0.074625 0.438212 -1.313985
2009-11-13 07:27:31 51°13.666 2°55.939 16.7212 0.074625 0.438212 -1.313985
2009-11-13 07:27:36 51°13.668 2°55.934 16.7177 0.074522 0.437585 -1.313985
2009-11-13 07:27:42 51°13.669 2°55.928 16.7272 0.074522 0.437585 -1.313985
2009-11-13 07:27:48 51°13.671 2°55.921 16.7206 0.074522 0.437594 -1.313985
2009-11-13 07:27:53 51°13.672 2°55.916 16.722 0.074522 0.437585 -1.313985
2009-11-13 07:27:59 51°13.674 2°55.908 16.7079 0.074625 0.438212 -1.313985
2009-11-13 07:28:04 51°13.675 2°55.902 16.6934 0.074625 0.438212 -1.313985
2009-11-13 07:28:08 51°13.676 2°55.897 16.7097 0.074522 0.437585 -1.313985
2009-11-13 07:28:14 51°13.678 2°55.89 16.7274 0.074522 0.437585 -1.313985
2009-11-13 07:28:19 51°13.679 2°55.883 16.7239 0.074625 0.438212 -1.313985
2009-11-13 07:28:23 51°13.681 2°55.877 16.7278 0.074625 0.438212 -1.313985
2009-11-13 07:28:28 51°13.682 2°55.87 16.7265 0.074522 0.437585 -1.313985
2009-11-13 07:28:34 51°13.684 2°55.861 16.746 0.074522 0.437585 -1.313985
2009-11-13 07:28:39 51°13.685 2°55.854 16.751 0.074522 0.437585 -1.313985
2009-11-13 07:28:43 51°13.686 2°55.848 16.7568 0.074625 0.438212 -1.313985
2009-11-13 07:28:49 51°13.688 2°55.839 16.7502 0.074625 0.438212 -1.313985
2009-11-13 07:28:54 51°13.689 2°55.832 16.7473 0.074625 0.438212 -1.313985
2009-11-13 07:28:59 51°13.69 2°55.825 16.7425 0.074625 0.438203 -1.313985
2009-11-13 07:29:03 51°13.691 2°55.82 16.7455 0.074625 0.438203 -1.313985
2009-11-13 07:29:08 51°13.692 2°55.813 16.7414 0.074625 0.438203 -1.313985
2009-11-13 07:29:14 51°13.692 2°55.805 16.7358 0.074522 0.437577 -1.313985
2009-11-13 07:29:19 51°13.693 2°55.798 16.7291 0.074625 0.438203 -1.313985
2009-11-13 07:29:24 51°13.693 2°55.792 16.7284 0.074522 0.437577 -1.313985
2009-11-13 07:29:28 51°13.693 2°55.787 16.7305 0.074522 0.437577 -1.313985
2009-11-13 07:29:34 51°13.693 2°55.78 16.7301 0.074522 0.437577 -1.313985
2009-11-13 07:29:39 51°13.692 2°55.774 16.7322 0.074625 0.438203 -1.313985
2009-11-13 07:29:43 51°13.692 2°55.769 16.7344 0.074625 0.438203 -1.313985
2009-11-13 07:29:48 51°13.691 2°55.764 16.7301 0.074522 0.437577 -1.313985
2009-11-13 07:29:53 51°13.691 2°55.759 16.7501 0.074522 0.437568 -1.313985
2009-11-13 07:29:58 51°13.69 2°55.754 16.7414 0.074625 0.438195 -1.313985
2009-11-13 07:30:03 51°13.689 2°55.75 16.7344 0.074625 0.438195 -1.313985
2009-11-13 07:30:08 51°13.688 2°55.745 16.7341 0.074625 0.438195 -1.313985
2009-11-13 07:30:12 51°13.687 2°55.743 16.7285 0.074625 0.438186 -1.313985
2009-11-13 07:30:17 51°13.687 2°55.74 16.7345 0.074625 0.438178 -1.313985
2009-11-13 07:30:23 51°13.686 2°55.737 16.7844 0.074625 0.438178 -1.313985
2009-11-13 07:30:27 51°13.686 2°55.736 16.789 0.074625 0.438178 -1.348809
2009-11-13 07:30:32 51°13.686 2°55.735 16.8114 0.074625 0.438178 -1.348809
2009-11-13 07:30:37 51°13.687 2°55.735 16.7802 0.074625 0.438178 -1.313985
2009-11-13 07:30:41 51°13.687 2°55.735 16.7827 0.074625 0.438178 -1.313985
2009-11-13 07:30:47 51°13.689 2°55.736 16.7892 0.074625 0.438178 -1.313985
2009-11-13 07:30:51 51°13.69 2°55.736 16.7961 0.074625 0.438186 -1.313985
2009-11-13 07:30:56 51°13.692 2°55.737 16.8019 0.074625 0.438186 -1.313985
2009-11-13 07:31:01 51°13.694 2°55.738 16.8197 0.074625 0.438186 -1.313985
2009-11-13 07:31:06 51°13.696 2°55.738 16.8325 0.074625 0.438195 -1.313985
2009-11-13 07:31:11 51°13.698 2°55.739 16.8523 0.074625 0.438203 -1.313985
2009-11-13 07:31:16 51°13.701 2°55.739 16.8639 0.074625 0.438203 -1.313985
2009-11-13 07:31:20 51°13.704 2°55.738 16.8798 0.074625 0.438203 -1.313985
2009-11-13 07:31:25 51°13.708 2°55.737 16.8798 0.074625 0.438212 -1.313985
2009-11-13 07:31:30 51°13.713 2°55.736 16.8775 0.074625 0.438212 -1.313985
2009-11-13 07:31:35 51°13.718 2°55.733 16.8383 0.074625 0.438212 -1.313985
2009-11-13 07:31:40 51°13.723 2°55.729 16.8417 0.074625 0.438195 -1.313985
2009-11-13 07:31:44 51°13.728 2°55.726 16.7385 0.074625 0.438186 -1.313985
2009-11-13 07:31:50 51°13.736 2°55.72 16.7204 0.074625 0.438169 -1.313985
2009-11-13 07:31:55 51°13.743 2°55.714 16.6948 0.074625 0.438161 -1.313985
2009-11-13 07:32:00 51°13.75 2°55.708 16.6896 0.074625 0.438161 -1.313985
2009-11-13 07:32:05 51°13.757 2°55.702 16.6886 0.074625 0.438152 -1.313985
2009-11-13 07:32:10 51°13.765 2°55.695 16.7016 0.074625 0.438144 -1.313985
2009-11-13 07:32:15 51°13.773 2°55.688 16.6845 0.074625 0.438144 -1.313985
2009-11-13 07:32:20 51°13.781 2°55.681 16.6946 0.074625 0.438152 -1.313985
2009-11-13 07:32:25 51°13.79 2°55.673 16.6102 0.074625 0.438152 -1.313985
2009-11-13 07:32:30 51°13.798 2°55.666 16.6284 0.074625 0.438152 -1.313985
2009-11-13 07:32:35 51°13.807 2°55.659 16.5896 0.074625 0.438161 -1.313985
2009-11-13 07:32:40 51°13.816 2°55.652 16.6392 0.074625 0.438161 -1.313985
2009-11-13 07:32:45 51°13.824 2°55.645 16.6553 0.074625 0.438169 -1.313985
2009-11-13 07:32:50 51°13.833 2°55.638 16.7169 0.074625 0.438178 -1.313985
2009-11-13 07:32:55 51°13.842 2°55.631 16.6979 0.074625 0.438178 -1.313985
2009-11-13 07:33:00 51°13.85 2°55.625 16.6912 0.074625 0.438178 -1.313985
2009-11-13 07:33:05 51°13.859 2°55.618 16.6313 0.074625 0.438178 -1.313985
2009-11-13 07:33:10 51°13.867 2°55.611 16.5983 0.074625 0.438169 -1.313985
2009-11-13 07:33:15 51°13.875 2°55.605 16.6153 0.074625 0.438169 -1.313985
2009-11-13 07:33:20 51°13.884 2°55.598 16.6556 0.074625 0.438169 -1.313985
2009-11-13 07:33:25 51°13.892 2°55.592 16.6516 0.074625 0.438161 -1.313985
2009-11-13 07:33:30 51°13.9 2°55.586 16.6699 0.074625 0.438161 -1.313985
2009-11-13 07:33:35 51°13.908 2°55.579 16.643 0.074625 0.438169 -1.313985
2009-11-13 07:33:40 51°13.917 2°55.573 16.6808 0.074625 0.438169 -1.313985
2009-11-13 07:33:45 51°13.925 2°55.567 16.6469 0.074625 0.438169 -1.313985
2009-11-13 07:33:50 51°13.933 2°55.562 16.673 0.074625 0.438169 -1.313985
2009-11-13 07:33:55 51°13.941 2°55.556 16.6754 0.074625 0.438169 -1.313985
2009-11-13 07:34:00 51°13.95 2°55.55 16.682 0.074625 0.438169 -1.313985
2009-11-13 07:34:05 51°13.958 2°55.544 16.6856 0.074625 0.438169 -1.313985
2009-11-13 07:34:10 51°13.966 2°55.538 16.6861 0.074625 0.438161 -1.313985
2009-11-13 07:34:15 51°13.974 2°55.532 16.6855 0.074625 0.438161 -1.313985
2009-11-13 07:34:20 51°13.982 2°55.526 16.7015 0.074625 0.438161 -1.313985
2009-11-13 07:34:25 51°13.99 2°55.52 16.6815 0.074625 0.438161 -1.313985
2009-11-13 07:34:30 51°13.998 2°55.514 16.6847 0.074625 0.438161 -1.313985
2009-11-13 07:34:35 51°14.006 2°55.508 16.6756 0.074625 0.438161 -1.313985
2009-11-13 07:34:40 51°14.014 2°55.502 16.6959 0.074625 0.438152 -1.313985
2009-11-13 07:34:45 51°14.022 2°55.496 16.7014 0.074625 0.438161 -1.313985
2009-11-13 07:34:50 51°14.03 2°55.49 16.7355 0.074625 0.438161 -1.313985
2009-11-13 07:34:55 51°14.038 2°55.485 16.7101 0.074625 0.438152 -1.313985
2009-11-13 07:35:00 51°14.046 2°55.478 16.7151 0.074625 0.438152 -1.313985
2009-11-13 07:35:04 51°14.053 2°55.473 16.6927 0.074625 0.438152 -1.313985
2009-11-13 07:35:10 51°14.064 2°55.466 16.7144 0.074625 0.438152 -1.313985
2009-11-13 07:35:15 51°14.073 2°55.459 16.6917 0.074625 0.438144 -1.313985
2009-11-13 07:35:20 51°14.083 2°55.452 16.716 0.074625 0.438144 -1.313985
2009-11-13 07:35:25 51°14.093 2°55.445 16.7009 0.074625 0.438144 -1.313985
2009-11-13 07:35:30 51°14.103 2°55.438 16.7301 0.074625 0.438144 -1.313985
2009-11-13 07:35:35 51°14.113 2°55.43 16.6953 0.074625 0.438144 -1.348809
2009-11-13 07:35:40 51°14.123 2°55.422 16.7939 0.074625 0.438135 -1.313985
2009-11-13 07:35:45 51°14.134 2°55.415 16.6879 0.074625 0.438144 -1.313985
2009-11-13 07:35:50 51°14.144 2°55.406 16.6737 0.074625 0.438144 -1.313985
2009-11-13 07:35:55 51°14.155 2°55.398 16.6882 0.074625 0.438135 -1.313985
2009-11-13 07:36:00 51°14.166 2°55.389 16.7451 0.074625 0.438135 -1.313985
2009-11-13 07:36:05 51°14.177 2°55.38 16.7604 0.074625 0.438144 -1.313985
2009-11-13 07:36:10 51°14.187 2°55.371 16.7572 0.074625 0.438144 -1.313985
2009-11-13 07:36:15 51°14.198 2°55.361 16.7597 0.074625 0.438144 -1.313985
2009-11-13 07:36:20 51°14.208 2°55.351 16.7687 0.074625 0.438144 -1.313985
2009-11-13 07:36:25 51°14.218 2°55.34 16.8104 0.074625 0.438144 -1.313985
2009-11-13 07:36:30 51°14.228 2°55.328 16.7926 0.074625 0.438144 -1.313985
2009-11-13 07:36:35 51°14.238 2°55.316 16.765 0.074625 0.438144 -1.313985
2009-11-13 07:36:40 51°14.247 2°55.302 16.7776 0.074625 0.438144 -1.313985
2009-11-13 07:36:45 51°14.256 2°55.288 16.6911 0.074625 0.438144 -1.313985
2009-11-13 07:36:50 51°14.265 2°55.274 16.7789 0.074625 0.438135 -1.313985
2009-11-13 07:36:55 51°14.274 2°55.259 16.7451 0.074625 0.438144 -1.313985
2009-11-13 07:37:00 51°14.282 2°55.243 16.5978 0.074625 0.438144 -1.313985
2009-11-13 07:37:05 51°14.29 2°55.226 16.6336 0.074625 0.438144 -1.313985
2009-11-13 07:37:10 51°14.298 2°55.209 16.6334 0.074625 0.438135 -1.313985
2009-11-13 07:37:15 51°14.306 2°55.193 16.6674 0.074625 0.438135 -1.313985
2009-11-13 07:37:20 51°14.314 2°55.176 16.6578 0.074625 0.438127 -1.313985
2009-11-13 07:37:25 51°14.322 2°55.159 16.6382 0.074625 0.438127 -1.313985
2009-11-13 07:37:30 51°14.33 2°55.141 16.5997 0.074625 0.438127 -1.313985
2009-11-13 07:37:35 51°14.338 2°55.123 16.6059 0.074625 0.438127 -1.313985
2009-11-13 07:37:40 51°14.345 2°55.105 16.6714 0.074625 0.438118 -1.313985
2009-11-13 07:37:45 51°14.353 2°55.086 16.6171 0.074625 0.438118 -1.313985
2009-11-13 07:37:50 51°14.361 2°55.068 16.5021 0.074625 0.43811 -1.313985
2009-11-13 07:37:55 51°14.37 2°55.05 16.5013 0.074625 0.438101 -1.313985
2009-11-13 07:38:00 51°14.38 2°55.035 16.6226 0.074625 0.438101 -1.313985
2009-11-13 07:38:05 51°14.391 2°55.02 16.6155 0.074625 0.438101 -1.313985
2009-11-13 07:38:10 51°14.403 2°55.007 16.6546 0.074625 0.43811 -1.313985
2009-11-13 07:38:15 51°14.414 2°54.993 16.6617 0.074625 0.438118 -1.313985
2009-11-13 07:38:20 51°14.425 2°54.979 16.5679 0.074625 0.438118 -1.313985
2009-11-13 07:38:25 51°14.437 2°54.965 16.5547 0.074625 0.438118 -1.313985
2009-11-13 07:38:29 51°14.446 2°54.953 16.4818 0.074625 0.438118 -1.313985
2009-11-13 07:38:34 51°14.457 2°54.938 16.6122 0.074625 0.43811 -1.313985
2009-11-13 07:38:39 51°14.469 2°54.924 16.5808 0.074625 0.43811 -1.313985
2009-11-13 07:38:44 51°14.481 2°54.909 16.5573 0.074625 0.43811 -1.313985
2009-11-13 07:38:49 51°14.493 2°54.894 16.6151 0.074625 0.438101 -1.313985
2009-11-13 07:38:54 51°14.505 2°54.88 16.6193 0.074625 0.438101 -1.313985
2009-11-13 07:38:59 51°14.517 2°54.866 16.5512 0.074625 0.438101 -1.313985
2009-11-13 07:39:04 51°14.53 2°54.853 16.4462 0.074625 0.438118 -1.313985
2009-11-13 07:39:09 51°14.542 2°54.839 16.592 0.074625 0.43811 -1.313985
2009-11-13 07:39:14 51°14.555 2°54.826 16.5491 0.074625 0.438118 -1.313985
2009-11-13 07:39:20 51°14.571 2°54.81 16.5359 0.074625 0.438101 -1.313985
2009-11-13 07:39:25 51°14.583 2°54.798 16.5603 0.074625 0.43811 -1.313985
2009-11-13 07:39:30 51°14.596 2°54.784 16.5118 0.074625 0.43811 -1.313985
2009-11-13 07:39:34 51°14.607 2°54.774 16.5271 0.074625 0.438118 -1.313985
2009-11-13 07:39:40 51°14.622 2°54.758 16.4834 0.074625 0.43811 -1.313985
2009-11-13 07:39:44 51°14.632 2°54.748 16.4839 0.074625 0.43811 -1.313985
2009-11-13 07:39:50 51°14.648 2°54.732 16.4396 0.074625 0.438101 -1.348809
2009-11-13 07:39:55 51°14.661 2°54.72 16.4808 0.074625 0.438101 -1.313985
2009-11-13 07:40:00 51°14.675 2°54.709 16.5003 0.074625 0.438101 -1.313985
2009-11-13 07:40:05 51°14.689 2°54.697 16.4945 0.074625 0.438101 -1.313985
2009-11-13 07:40:10 51°14.703 2°54.687 16.493 0.074625 0.438101 -1.313985
2009-11-13 07:40:14 51°14.714 2°54.678 16.4968 0.074625 0.438101 -1.313985
2009-11-13 07:40:20 51°14.73 2°54.666 16.484 0.074625 0.43811 -1.313985
2009-11-13 07:40:24 51°14.742 2°54.657 16.4673 0.074625 0.438101 -1.313985
2009-11-13 07:40:30 51°14.758 2°54.645 16.392 0.074625 0.438101 -1.313985
2009-11-13 07:40:34 51°14.769 2°54.636 16.4979 0.074625 0.43811 -1.313985
2009-11-13 07:40:40 51°14.787 2°54.624 16.4478 0.074625 0.438101 -1.313985
2009-11-13 07:40:44 51°14.798 2°54.616 16.5029 0.074625 0.438101 -1.313985
2009-11-13 07:40:50 51°14.815 2°54.603 16.4861 0.074625 0.438101 -1.313985
2009-11-13 07:40:54 51°14.826 2°54.595 16.4718 0.074625 0.43811 -1.313985
2009-11-13 07:41:00 51°14.842 2°54.582 16.4817 0.074625 0.43811 -1.313985
2009-11-13 07:41:04 51°14.854 2°54.574 16.4641 0.074625 0.438101 -1.313985
2009-11-13 07:41:10 51°14.87 2°54.561 16.4417 0.074625 0.438101 -1.313985
2009-11-13 07:41:14 51°14.881 2°54.552 16.4915 0.074625 0.438101 -1.313985
2009-11-13 07:41:20 51°14.898 2°54.539 16.4201 0.074625 0.438093 -1.313985
2009-11-13 07:41:24 51°14.91 2°54.53 16.4948 0.074625 0.438093 -1.313985
2009-11-13 07:41:30 51°14.926 2°54.516 16.4852 0.074625 0.438093 -1.313985
2009-11-13 07:41:34 51°14.937 2°54.507 16.4804 0.074625 0.438093 -1.313985
2009-11-13 07:41:40 51°14.954 2°54.494 16.4091 0.074625 0.438093 -1.313985
2009-11-13 07:41:44 51°14.965 2°54.485 16.4508 0.074625 0.438093 -1.313985
2009-11-13 07:41:50 51°14.982 2°54.471 16.4481 0.074625 0.438093 -1.313985
2009-11-13 07:41:54 51°14.993 2°54.462 16.4191 0.074625 0.438093 -1.313985
2009-11-13 07:42:00 51°15.01 2°54.447 16.484 0.074625 0.438093 -1.313985
2009-11-13 07:42:04 51°15.021 2°54.439 16.4511 0.074625 0.438093 -1.313985
2009-11-13 07:42:10 51°15.038 2°54.425 16.4822 0.074625 0.438093 -1.313985
2009-11-13 07:42:14 51°15.049 2°54.415 16.3991 0.074625 0.438093 -1.313985
2009-11-13 07:42:20 51°15.066 2°54.401 16.4679 0.074625 0.438093 -1.313985
2009-11-13 07:42:25 51°15.079 2°54.389 16.4303 0.074625 0.438093 -1.313985
2009-11-13 07:42:30 51°15.093 2°54.378 16.4563 0.074625 0.438093 -1.313985
2009-11-13 07:42:34 51°15.104 2°54.368 16.4639 0.074625 0.438101 -1.313985
2009-11-13 07:42:40 51°15.121 2°54.354 16.4377 0.074625 0.438101 -1.313985
2009-11-13 07:42:45 51°15.135 2°54.342 16.4051 0.074625 0.438093 -1.313985
2009-11-13 07:42:50 51°15.149 2°54.331 16.412 0.074625 0.438101 -1.313985
2009-11-13 07:42:54 51°15.16 2°54.321 16.3743 0.074625 0.438101 -1.313985
2009-11-13 07:43:00 51°15.176 2°54.307 16.4477 0.074625 0.438101 -1.313985
2009-11-13 07:43:05 51°15.19 2°54.295 16.3577 0.074625 0.438101 -1.313985
2009-11-13 07:43:10 51°15.204 2°54.284 16.4076 0.074625 0.438093 -1.313985
2009-11-13 07:43:15 51°15.217 2°54.272 16.4288 0.074625 0.438093 -1.313985
2009-11-13 07:43:20 51°15.231 2°54.26 16.4387 0.074625 0.438101 -1.313985
2009-11-13 07:43:25 51°15.245 2°54.248 16.4303 0.074625 0.438093 -1.313985
2009-11-13 07:43:30 51°15.259 2°54.237 16.4265 0.074625 0.438093 -1.313985
2009-11-13 07:43:34 51°15.27 2°54.228 16.4394 0.074625 0.438093 -1.313985
2009-11-13 07:43:40 51°15.286 2°54.214 16.3989 0.074625 0.438093 -1.313985
2009-11-13 07:43:45 51°15.3 2°54.202 16.3832 0.074625 0.438101 -1.313985
2009-11-13 07:43:50 51°15.314 2°54.19 16.4294 0.074625 0.438093 -1.313985
2009-11-13 07:43:54 51°15.325 2°54.181 16.4181 0.074625 0.438093 -1.313985
2009-11-13 07:44:00 51°15.341 2°54.167 16.3775 0.074625 0.438093 -1.313985
2009-11-13 07:44:05 51°15.355 2°54.155 16.4221 0.074625 0.438101 -1.313985
2009-11-13 07:44:10 51°15.369 2°54.144 16.391 0.074625 0.438101 -1.313985
2009-11-13 07:44:14 51°15.38 2°54.135 16.4287 0.074625 0.438101 -1.313985
2009-11-13 07:44:20 51°15.397 2°54.12 16.3753 0.074625 0.438101 -1.313985
2009-11-13 07:44:25 51°15.411 2°54.109 16.4262 0.074625 0.438101 -1.313985
2009-11-13 07:44:30 51°15.425 2°54.097 16.4247 0.074625 0.438101 -1.313985
2009-11-13 07:44:34 51°15.436 2°54.088 16.3905 0.074625 0.438101 -1.313985
2009-11-13 07:44:40 51°15.453 2°54.074 16.4207 0.074625 0.438101 -1.313985
2009-11-13 07:44:45 51°15.467 2°54.063 16.4326 0.074625 0.438101 -1.313985
2009-11-13 07:44:50 51°15.48 2°54.051 16.4244 0.074625 0.438101 -1.313985
2009-11-13 07:44:55 51°15.495 2°54.04 16.4514 0.074625 0.43811 -1.313985
2009-11-13 07:45:00 51°15.508 2°54.028 16.4071 0.074625 0.43811 -1.313985
2009-11-13 07:45:04 51°15.519 2°54.019 16.377 0.074625 0.438101 -1.313985
2009-11-13 07:45:10 51°15.536 2°54.005 16.4181 0.074625 0.43811 -1.313985
2009-11-13 07:45:14 51°15.547 2°53.996 16.3671 0.074625 0.43811 -1.313985
2009-11-13 07:45:20 51°15.564 2°53.983 16.4254 0.074625 0.43811 -1.313985
2009-11-13 07:45:25 51°15.578 2°53.971 16.4352 0.074625 0.438101 -1.313985
2009-11-13 07:45:30 51°15.591 2°53.96 16.3659 0.074625 0.438101 -1.313985
2009-11-13 07:45:34 51°15.602 2°53.951 16.3845 0.074625 0.438118 -1.313985
2009-11-13 07:45:40 51°15.619 2°53.937 16.4183 0.074625 0.43811 -1.313985
2009-11-13 07:45:45 51°15.632 2°53.925 16.3607 0.074625 0.43811 -1.313985
2009-11-13 07:45:50 51°15.646 2°53.914 16.4131 0.074625 0.43811 -1.313985
2009-11-13 07:45:55 51°15.66 2°53.902 16.3818 0.074625 0.43811 -1.313985
2009-11-13 07:46:00 51°15.674 2°53.891 16.4065 0.074625 0.43811 -1.313985
2009-11-13 07:46:05 51°15.687 2°53.879 16.4118 0.074625 0.43811 -1.313985
2009-11-13 07:46:10 51°15.701 2°53.867 16.4056 0.074625 0.43811 -1.313985
2009-11-13 07:46:14 51°15.712 2°53.858 16.3984 0.074625 0.438118 -1.313985
2009-11-13 07:46:20 51°15.729 2°53.844 16.4188 0.074625 0.43811 -1.313985
2009-11-13 07:46:25 51°15.743 2°53.833 16.3826 0.074625 0.438118 -1.313985
2009-11-13 07:46:30 51°15.756 2°53.821 16.4055 0.074625 0.438118 -1.313985
2009-11-13 07:46:35 51°15.77 2°53.81 16.4078 0.074625 0.43811 -1.313985
2009-11-13 07:46:40 51°15.784 2°53.798 16.3874 0.074625 0.438118 -1.313985
2009-11-13 07:46:45 51°15.798 2°53.786 16.4046 0.074625 0.438118 -1.348809
2009-11-13 07:46:50 51°15.812 2°53.775 16.3748 0.074625 0.438127 -1.313985
2009-11-13 07:46:54 51°15.823 2°53.765 16.4156 0.074625 0.438118 -1.313985
2009-11-13 07:47:00 51°15.84 2°53.752 16.388 0.074625 0.438118 -1.313985
2009-11-13 07:47:05 51°15.853 2°53.74 16.4258 0.074625 0.438118 -1.313985
2009-11-13 07:47:10 51°15.867 2°53.728 16.3718 0.074625 0.438127 -1.313985
2009-11-13 07:47:14 51°15.878 2°53.719 16.4219 0.074625 0.438127 -1.313985
2009-11-13 07:47:20 51°15.895 2°53.705 16.3967 0.074625 0.438127 -1.313985
2009-11-13 07:47:25 51°15.909 2°53.694 16.3847 0.074625 0.438127 -1.313985
2009-11-13 07:47:30 51°15.923 2°53.683 16.4182 0.074625 0.438127 -1.313985
2009-11-13 07:47:34 51°15.934 2°53.674 16.4166 0.074625 0.438127 -1.313985
2009-11-13 07:47:40 51°15.95 2°53.66 16.3835 0.074625 0.438135 -1.313985
2009-11-13 07:47:45 51°15.964 2°53.649 16.4043 0.074625 0.438135 -1.313985
2009-11-13 07:47:50 51°15.978 2°53.637 16.3898 0.074625 0.438135 -1.313985
2009-11-13 07:47:54 51°15.989 2°53.628 16.4104 0.074625 0.438135 -1.313985
2009-11-13 07:48:00 51°16.006 2°53.614 16.4216 0.074625 0.438135 -1.313985
2009-11-13 07:48:05 51°16.02 2°53.603 16.4049 0.074625 0.438135 -1.313985
2009-11-13 07:48:10 51°16.033 2°53.591 16.4131 0.074625 0.438135 -1.313985
2009-11-13 07:48:14 51°16.044 2°53.582 16.398 0.074625 0.438144 -1.313985
2009-11-13 07:48:20 51°16.061 2°53.568 16.4055 0.074625 0.438144 -1.313985
2009-11-13 07:48:25 51°16.075 2°53.557 16.3844 0.074625 0.438144 -1.313985
2009-11-13 07:48:30 51°16.089 2°53.545 16.4086 0.074625 0.438144 -1.313985
2009-11-13 07:48:34 51°16.1 2°53.536 16.3886 0.074625 0.438144 -1.313985
2009-11-13 07:48:40 51°16.116 2°53.523 16.4073 0.074625 0.438144 -1.313985
2009-11-13 07:48:45 51°16.13 2°53.511 16.413 0.074625 0.438144 -1.313985
2009-11-13 07:48:50 51°16.144 2°53.5 16.4259 0.074625 0.438144 -1.313985
2009-11-13 07:48:54 51°16.155 2°53.491 16.3864 0.074625 0.438152 -1.313985
2009-11-13 07:49:00 51°16.172 2°53.478 16.4058 0.074625 0.438152 -1.313985
2009-11-13 07:49:05 51°16.186 2°53.466 16.4064 0.074625 0.438152 -1.313985
2009-11-13 07:49:10 51°16.199 2°53.455 16.4001 0.074625 0.438161 -1.313985
2009-11-13 07:49:14 51°16.21 2°53.446 16.422 0.074625 0.438152 -1.313985
2009-11-13 07:49:20 51°16.227 2°53.432 16.3743 0.074625 0.438161 -1.313985
2009-11-13 07:49:25 51°16.241 2°53.421 16.4163 0.074625 0.438161 -1.313985
2009-11-13 07:49:30 51°16.254 2°53.41 16.3705 0.074625 0.438161 -1.313985
2009-11-13 07:49:34 51°16.266 2°53.401 16.3916 0.074625 0.438161 -1.313985
2009-11-13 07:49:40 51°16.282 2°53.388 16.4134 0.074625 0.438161 -1.313985
2009-11-13 07:49:44 51°16.293 2°53.379 16.4136 0.074625 0.438161 -1.313985
2009-11-13 07:49:50 51°16.31 2°53.366 16.4196 0.074625 0.438161 -1.313985
2009-11-13 07:49:54 51°16.321 2°53.357 16.4058 0.074625 0.438161 -1.313985
2009-11-13 07:50:00 51°16.337 2°53.343 16.425 0.074625 0.438161 -1.313985
2009-11-13 07:50:05 51°16.351 2°53.332 16.4056 0.074625 0.438169 -1.313985
2009-11-13 07:50:10 51°16.364 2°53.321 16.4152 0.074625 0.438178 -1.313985
2009-11-13 07:50:14 51°16.375 2°53.312 16.4181 0.074625 0.438178 -1.313985
2009-11-13 07:50:20 51°16.392 2°53.298 16.4024 0.074625 0.438178 -1.313985
2009-11-13 07:50:25 51°16.405 2°53.287 16.3837 0.074625 0.438178 -1.313985
2009-11-13 07:50:30 51°16.419 2°53.276 16.3988 0.074625 0.438178 -1.313985
2009-11-13 07:50:34 51°16.43 2°53.267 16.3882 0.074625 0.438178 -1.313985
2009-11-13 07:50:40 51°16.447 2°53.253 16.396 0.074625 0.438178 -1.313985
2009-11-13 07:50:45 51°16.46 2°53.242 16.4121 0.074625 0.438178 -1.313985
2009-11-13 07:50:50 51°16.474 2°53.231 16.42 0.074625 0.438186 -1.313985
2009-11-13 07:50:54 51°16.485 2°53.221 16.414 0.074625 0.438178 -1.313985
2009-11-13 07:51:00 51°16.502 2°53.208 16.4239 0.074625 0.438178 -1.313985
2009-11-13 07:51:04 51°16.512 2°53.199 16.3758 0.074625 0.438195 -1.313985
2009-11-13 07:51:10 51°16.529 2°53.185 16.3787 0.074625 0.438195 -1.313985
2009-11-13 07:51:14 51°16.54 2°53.176 16.4055 0.074625 0.438195 -1.313985
2009-11-13 07:51:20 51°16.556 2°53.162 16.4214 0.074625 0.438195 -1.313985
2009-11-13 07:51:25 51°16.57 2°53.151 16.3853 0.074625 0.438203 -1.313985
2009-11-13 07:51:30 51°16.583 2°53.139 16.4163 0.074625 0.438203 -1.313985
2009-11-13 07:51:34 51°16.594 2°53.13 16.4174 0.074625 0.438195 -1.313985
2009-11-13 07:51:40 51°16.611 2°53.116 16.3829 0.074625 0.438195 -1.313985
2009-11-13 07:51:45 51°16.624 2°53.104 16.4109 0.074522 0.437577 -1.313985
2009-11-13 07:51:50 51°16.638 2°53.093 16.4099 0.074625 0.438203 -1.313985
2009-11-13 07:51:54 51°16.648 2°53.084 16.4022 0.074522 0.437577 -1.313985
2009-11-13 07:52:00 51°16.665 2°53.07 16.4162 0.074522 0.437577 -1.313985
2009-11-13 07:52:05 51°16.678 2°53.058 16.3939 0.074625 0.438203 -1.313985
2009-11-13 07:52:10 51°16.692 2°53.047 16.4096 0.074625 0.438212 -1.313985
2009-11-13 07:52:14 51°16.703 2°53.038 16.4126 0.074522 0.437585 -1.313985
2009-11-13 07:52:20 51°16.719 2°53.024 16.4146 0.074625 0.438212 -1.313985
2009-11-13 07:52:25 51°16.733 2°53.013 16.4191 0.074522 0.437594 -1.313985
2009-11-13 07:52:30 51°16.746 2°53.002 16.41 0.074522 0.437594 -1.313985
2009-11-13 07:52:34 51°16.757 2°52.992 16.388 0.074522 0.437594 -1.313985
2009-11-13 07:52:40 51°16.773 2°52.979 16.4124 0.074625 0.43822 -1.313985
2009-11-13 07:52:45 51°16.786 2°52.967 16.4123 0.074522 0.437594 -1.313985
2009-11-13 07:52:50 51°16.8 2°52.956 16.3905 0.074522 0.437602 -1.313985
2009-11-13 07:52:54 51°16.811 2°52.947 16.4094 0.074522 0.437602 -1.313985
2009-11-13 07:53:00 51°16.826 2°52.932 16.4103 0.074522 0.437602 -1.313985
2009-11-13 07:53:05 51°16.84 2°52.921 16.4276 0.074625 0.438229 -1.313985
2009-11-13 07:53:10 51°16.853 2°52.909 16.3889 0.074625 0.438229 -1.313985
2009-11-13 07:53:14 51°16.864 2°52.9 16.4088 0.074522 0.437602 -1.313985
2009-11-13 07:53:20 51°16.88 2°52.886 16.4289 0.074522 0.437602 -1.313985
2009-11-13 07:53:24 51°16.891 2°52.877 16.4168 0.074522 0.437602 -1.313985
2009-11-13 07:53:30 51°16.907 2°52.863 16.4276 0.074522 0.437602 -1.313985
2009-11-13 07:53:34 51°16.918 2°52.854 16.3961 0.074522 0.437611 -1.313985
2009-11-13 07:53:40 51°16.934 2°52.84 16.4276 0.074522 0.437611 -1.313985
2009-11-13 07:53:45 51°16.947 2°52.829 16.4261 0.074522 0.437619 -1.313985
2009-11-13 07:53:50 51°16.961 2°52.818 16.4144 0.074522 0.437611 -1.313985
2009-11-13 07:53:54 51°16.971 2°52.809 16.3945 0.074522 0.437611 -1.313985
2009-11-13 07:54:00 51°16.988 2°52.795 16.4165 0.074522 0.437611 -1.313985
2009-11-13 07:54:05 51°17.001 2°52.783 16.4105 0.074522 0.437619 -1.313985
2009-11-13 07:54:10 51°17.015 2°52.772 16.4225 0.074522 0.437619 -1.313985
2009-11-13 07:54:14 51°17.025 2°52.762 16.4133 0.074522 0.437619 -1.313985
2009-11-13 07:54:20 51°17.041 2°52.747 16.4013 0.074522 0.437619 -1.313985
2009-11-13 07:54:25 51°17.055 2°52.735 16.4037 0.074522 0.437628 -1.313985
2009-11-13 07:54:30 51°17.068 2°52.724 16.4119 0.074522 0.437628 -1.313985
2009-11-13 07:54:34 51°17.079 2°52.715 16.393 0.074522 0.437628 -1.313985
2009-11-13 07:54:40 51°17.095 2°52.701 16.4129 0.074522 0.437611 -1.313985
2009-11-13 07:54:45 51°17.11 2°52.691 16.4246 0.074522 0.437636 -1.313985
2009-11-13 07:54:50 51°17.123 2°52.68 16.416 0.074522 0.437619 -1.313985
2009-11-13 07:54:55 51°17.138 2°52.671 16.4265 0.074522 0.437645 -1.313985
2009-11-13 07:55:00 51°17.152 2°52.66 16.3972 0.074522 0.437645 -1.313985
2009-11-13 07:55:05 51°17.166 2°52.651 16.409 0.074522 0.437628 -1.313985
2009-11-13 07:55:10 51°17.18 2°52.642 16.4256 0.074522 0.437645 -1.313985
2009-11-13 07:55:15 51°17.195 2°52.633 16.4087 0.074522 0.437636 -1.313985
2009-11-13 07:55:20 51°17.21 2°52.624 16.4265 0.074522 0.437636 -1.313985
2009-11-13 07:55:25 51°17.224 2°52.615 16.4142 0.074522 0.437645 -1.313985
2009-11-13 07:55:30 51°17.239 2°52.607 16.4236 0.074522 0.437645 -1.313985
2009-11-13 07:55:35 51°17.253 2°52.598 16.4189 0.074522 0.437645 -1.313985
2009-11-13 07:55:40 51°17.268 2°52.59 16.4251 0.074522 0.437653 -1.313985
2009-11-13 07:55:45 51°17.283 2°52.581 16.4258 0.074522 0.437645 -1.313985
2009-11-13 07:55:50 51°17.298 2°52.573 16.4319 0.074522 0.437662 -1.313985
2009-11-13 07:55:55 51°17.312 2°52.565 16.4246 0.074522 0.437653 -1.313985
2009-11-13 07:56:00 51°17.327 2°52.556 16.4418 0.074522 0.437653 -1.313985
2009-11-13 07:56:05 51°17.342 2°52.548 16.4323 0.074522 0.437662 -1.313985
2009-11-13 07:56:10 51°17.357 2°52.539 16.4273 0.074522 0.437662 -1.313985
2009-11-13 07:56:15 51°17.371 2°52.531 16.409 0.074522 0.437662 -1.313985
2009-11-13 07:56:20 51°17.386 2°52.522 16.4445 0.074522 0.437653 -1.313985
2009-11-13 07:56:25 51°17.402 2°52.514 16.4229 0.074522 0.437662 -1.313985
2009-11-13 07:56:30 51°17.416 2°52.506 16.4319 0.074522 0.437662 -1.313985
2009-11-13 07:56:35 51°17.431 2°52.498 16.4291 0.074522 0.437662 -1.313985
2009-11-13 07:56:40 51°17.446 2°52.49 16.4208 0.074522 0.437662 -1.313985
2009-11-13 07:56:45 51°17.461 2°52.482 16.4376 0.074522 0.43767 -1.313985
2009-11-13 07:56:50 51°17.477 2°52.474 16.429 0.074522 0.43767 -1.313985
2009-11-13 07:56:55 51°17.492 2°52.467 16.4176 0.074522 0.43767 -1.313985
2009-11-13 07:57:00 51°17.507 2°52.46 16.432 0.074522 0.43767 -1.313985
2009-11-13 07:57:05 51°17.523 2°52.455 16.4341 0.074522 0.437662 -1.313985
2009-11-13 07:57:10 51°17.538 2°52.451 16.4417 0.074522 0.437679 -1.313985
2009-11-13 07:57:15 51°17.554 2°52.447 16.4406 0.074522 0.437679 -1.313985
2009-11-13 07:57:20 51°17.57 2°52.443 16.4443 0.074522 0.437687 -1.313985
2009-11-13 07:57:25 51°17.585 2°52.44 16.4327 0.074522 0.437687 -1.313985
2009-11-13 07:57:30 51°17.601 2°52.438 16.4482 0.074522 0.437687 -1.313985
2009-11-13 07:57:35 51°17.617 2°52.436 16.4323 0.074522 0.437696 -1.313985
2009-11-13 07:57:40 51°17.634 2°52.434 16.4506 0.074522 0.437696 -1.313985
2009-11-13 07:57:45 51°17.65 2°52.433 16.4312 0.074522 0.437704 -1.313985
2009-11-13 07:57:50 51°17.666 2°52.431 16.446 0.074522 0.437687 -1.313985
2009-11-13 07:57:55 51°17.682 2°52.43 16.4541 0.074522 0.437713 -1.313985
2009-11-13 07:58:00 51°17.698 2°52.429 16.4282 0.074522 0.437713 -1.313985
2009-11-13 07:58:05 51°17.714 2°52.428 16.4527 0.074522 0.437687 -1.313985
2009-11-13 07:58:10 51°17.73 2°52.428 16.439 0.074522 0.437713 -1.313985
2009-11-13 07:58:15 51°17.746 2°52.427 16.4461 0.074522 0.437704 -1.313985
2009-11-13 07:58:20 51°17.762 2°52.428 16.4537 0.074522 0.437696 -1.313985
2009-11-13 07:58:25 51°17.779 2°52.428 16.4582 0.074522 0.43773 -1.313985
2009-11-13 07:58:30 51°17.795 2°52.43 16.4333 0.074522 0.43773 -1.313985
2009-11-13 07:58:35 51°17.811 2°52.43 16.4605 0.074522 0.437696 -1.313985
2009-11-13 07:58:40 51°17.827 2°52.431 16.4208 0.074522 0.437738 -1.313985
2009-11-13 07:58:45 51°17.844 2°52.432 16.4591 0.074522 0.437721 -1.313985
2009-11-13 07:58:50 51°17.86 2°52.436 16.4474 0.074522 0.437747 -1.313985
2009-11-13 07:58:55 51°17.876 2°52.439 16.4622 0.074522 0.437755 -1.313985
2009-11-13 07:59:00 51°17.892 2°52.443 16.4637 0.074522 0.437755 -1.313985
2009-11-13 07:59:05 51°17.908 2°52.446 16.4704 0.074522 0.437738 -1.313985
2009-11-13 07:59:10 51°17.924 2°52.448 16.463 0.074522 0.437755 -1.313985
2009-11-13 07:59:14 51°17.937 2°52.452 16.4547 0.074522 0.437747 -1.313985
2009-11-13 07:59:20 51°17.957 2°52.455 16.4493 0.074522 0.437747 -1.313985
2009-11-13 07:59:25 51°17.973 2°52.458 16.4511 0.074522 0.437755 -1.313985
2009-11-13 07:59:30 51°17.989 2°52.462 16.4678 0.074522 0.437755 -1.313985
2009-11-13 07:59:35 51°18.006 2°52.465 16.4733 0.074522 0.437738 -1.313985
2009-11-13 07:59:40 51°18.022 2°52.47 16.4564 0.074522 0.437747 -1.313985
2009-11-13 07:59:45 51°18.039 2°52.474 16.4503 0.074522 0.437747 -1.313985
2009-11-13 07:59:50 51°18.054 2°52.476 16.4553 0.074522 0.437747 -1.313985
2009-11-13 07:59:54 51°18.067 2°52.48 16.4634 0.074522 0.437755 -1.313985
2009-11-13 08:00:00 51°18.087 2°52.484 16.467 0.074522 0.437755 -1.313985
2009-11-13 08:00:05 51°18.103 2°52.488 16.4811 0.074522 0.437747 -1.313985
2009-11-13 08:00:10 51°18.12 2°52.491 16.471 0.074522 0.437755 -1.313985
2009-11-13 08:00:15 51°18.136 2°52.496 16.4828 0.074522 0.437755 -1.313985
2009-11-13 08:00:20 51°18.153 2°52.499 16.4549 0.074522 0.437747 -1.313985
2009-11-13 08:00:25 51°18.169 2°52.501 16.4998 0.074522 0.437772 -1.313985
2009-11-13 08:00:30 51°18.185 2°52.507 16.444 0.074522 0.437772 -1.313985
2009-11-13 08:00:35 51°18.201 2°52.508 16.48 0.074522 0.437772 -1.313985
2009-11-13 08:00:40 51°18.217 2°52.512 16.4661 0.074522 0.437772 -1.313985
2009-11-13 08:00:45 51°18.233 2°52.515 16.4807 0.074522 0.437781 -1.313985
2009-11-13 08:00:50 51°18.249 2°52.518 16.4785 0.074522 0.437764 -1.313985
2009-11-13 08:00:55 51°18.266 2°52.522 16.481 0.074522 0.437772 -1.313985
2009-11-13 08:01:00 51°18.282 2°52.525 16.4709 0.074522 0.437772 -1.313985
2009-11-13 08:01:05 51°18.298 2°52.528 16.4828 0.074522 0.437755 -1.313985
2009-11-13 08:01:10 51°18.315 2°52.531 16.4752 0.074522 0.437764 -1.313985
2009-11-13 08:01:15 51°18.331 2°52.534 16.4666 0.074522 0.437764 -1.313985
2009-11-13 08:01:20 51°18.347 2°52.537 16.4672 0.074522 0.437764 -1.313985
2009-11-13 08:01:25 51°18.364 2°52.54 16.4709 0.074522 0.437772 -1.313985
2009-11-13 08:01:30 51°18.38 2°52.543 16.4775 0.074522 0.437772 -1.313985
2009-11-13 08:01:35 51°18.396 2°52.547 16.4727 0.074522 0.437764 -1.313985
2009-11-13 08:01:40 51°18.412 2°52.55 16.4912 0.074522 0.437764 -1.313985
2009-11-13 08:01:45 51°18.429 2°52.553 16.499 0.074522 0.437772 -1.313985
2009-11-13 08:01:50 51°18.445 2°52.557 16.4951 0.074522 0.437772 -1.313985
2009-11-13 08:01:55 51°18.461 2°52.56 16.4916 0.074522 0.437781 -1.313985
2009-11-13 08:02:00 51°18.477 2°52.563 16.4908 0.074522 0.437781 -1.313985
2009-11-13 08:02:05 51°18.494 2°52.567 16.4993 0.074522 0.437764 -1.313985
2009-11-13 08:02:10 51°18.51 2°52.571 16.4896 0.074522 0.437772 -1.313985
2009-11-13 08:02:15 51°18.526 2°52.572 16.5012 0.074522 0.437764 -1.313985
2009-11-13 08:02:20 51°18.543 2°52.577 16.4809 0.074522 0.437772 -1.313985
2009-11-13 08:02:25 51°18.559 2°52.578 16.4998 0.074522 0.437755 -1.313985
2009-11-13 08:02:30 51°18.575 2°52.584 16.4796 0.074522 0.437755 -1.313985
2009-11-13 08:02:35 51°18.591 2°52.585 16.4811 0.074522 0.43779 -1.313985
2009-11-13 08:02:40 51°18.607 2°52.589 16.5009 0.074522 0.437772 -1.313985
2009-11-13 08:02:45 51°18.624 2°52.591 16.4985 0.074522 0.43779 -1.313985
2009-11-13 08:02:50 51°18.64 2°52.594 16.5056 0.074522 0.43779 -1.313985
2009-11-13 08:02:55 51°18.656 2°52.597 16.4946 0.074522 0.43779 -1.313985
2009-11-13 08:03:00 51°18.672 2°52.599 16.496 0.074522 0.43779 -1.313985
2009-11-13 08:03:05 51°18.689 2°52.603 16.5055 0.074522 0.43779 -1.313985
2009-11-13 08:03:10 51°18.705 2°52.605 16.5207 0.074522 0.437781 -1.313985
2009-11-13 08:03:15 51°18.721 2°52.61 16.4825 0.074522 0.437807 -1.313985
2009-11-13 08:03:20 51°18.737 2°52.61 16.5068 0.074522 0.437781 -1.313985
2009-11-13 08:03:25 51°18.753 2°52.614 16.5117 0.074522 0.437798 -1.313985
2009-11-13 08:03:30 51°18.769 2°52.617 16.5009 0.074522 0.437798 -1.313985
2009-11-13 08:03:35 51°18.786 2°52.62 16.4988 0.074522 0.437807 -1.313985
2009-11-13 08:03:40 51°18.802 2°52.622 16.5193 0.074522 0.43779 -1.313985
2009-11-13 08:03:45 51°18.818 2°52.626 16.5162 0.074522 0.437798 -1.313985
2009-11-13 08:03:50 51°18.834 2°52.629 16.4995 0.074522 0.437798 -1.313985
2009-11-13 08:03:55 51°18.851 2°52.631 16.5161 0.074522 0.437798 -1.313985
2009-11-13 08:04:00 51°18.867 2°52.635 16.52 0.074522 0.437798 -1.313985
2009-11-13 08:04:05 51°18.883 2°52.636 16.5153 0.074522 0.437798 -1.313985
2009-11-13 08:04:10 51°18.9 2°52.64 16.5197 0.074522 0.43779 -1.313985
2009-11-13 08:04:15 51°18.915 2°52.643 16.5118 0.074522 0.437807 -1.313985
2009-11-13 08:04:20 51°18.932 2°52.646 16.5226 0.074522 0.437798 -1.313985
2009-11-13 08:04:25 51°18.948 2°52.65 16.5275 0.074522 0.437807 -1.313985
2009-11-13 08:04:30 51°18.964 2°52.652 16.5228 0.074522 0.437807 -1.313985
2009-11-13 08:04:35 51°18.981 2°52.655 16.5258 0.074522 0.437798 -1.313985
2009-11-13 08:04:40 51°18.997 2°52.657 16.5277 0.074522 0.437798 -1.313985
2009-11-13 08:04:45 51°19.013 2°52.66 16.5211 0.074522 0.437807 -1.313985
2009-11-13 08:04:50 51°19.03 2°52.662 16.5101 0.074522 0.43779 -1.313985
2009-11-13 08:04:55 51°19.046 2°52.665 16.5328 0.074522 0.437807 -1.313985
2009-11-13 08:05:00 51°19.062 2°52.668 16.5138 0.074522 0.437807 -1.313985
2009-11-13 08:05:05 51°19.079 2°52.671 16.5311 0.074522 0.437781 -1.313985
2009-11-13 08:05:10 51°19.095 2°52.672 16.5323 0.074522 0.437798 -1.313985
2009-11-13 08:05:15 51°19.111 2°52.676 16.5333 0.074522 0.437807 -1.313985
2009-11-13 08:05:20 51°19.128 2°52.679 16.5226 0.074522 0.437807 -1.313985
2009-11-13 08:05:25 51°19.144 2°52.681 16.5291 0.074522 0.437824 -1.313985
2009-11-13 08:05:30 51°19.16 2°52.684 16.5169 0.074522 0.437824 -1.313985
2009-11-13 08:05:35 51°19.177 2°52.687 16.5353 0.074522 0.437798 -1.313985
2009-11-13 08:05:40 51°19.193 2°52.689 16.5199 0.074522 0.437815 -1.313985
2009-11-13 08:05:45 51°19.209 2°52.692 16.5288 0.074522 0.437807 -1.313985
2009-11-13 08:05:50 51°19.226 2°52.694 16.5349 0.074522 0.437807 -1.313985
2009-11-13 08:05:55 51°19.242 2°52.697 16.5413 0.074522 0.437815 -1.313985
2009-11-13 08:06:00 51°19.258 2°52.7 16.5223 0.074522 0.437815 -1.313985
2009-11-13 08:06:05 51°19.275 2°52.702 16.5479 0.074522 0.437807 -1.313985
2009-11-13 08:06:10 51°19.291 2°52.706 16.5374 0.074522 0.437815 -1.313985
2009-11-13 08:06:15 51°19.307 2°52.708 16.5548 0.074522 0.437807 -1.313985
2009-11-13 08:06:20 51°19.324 2°52.712 16.5417 0.074522 0.437815 -1.313985
2009-11-13 08:06:25 51°19.34 2°52.713 16.5484 0.074522 0.437807 -1.313985
2009-11-13 08:06:30 51°19.356 2°52.716 16.5376 0.074522 0.437807 -1.313985
2009-11-13 08:06:35 51°19.373 2°52.718 16.528 0.074522 0.437815 -1.313985
2009-11-13 08:06:40 51°19.389 2°52.72 16.5438 0.074522 0.437807 -1.313985
2009-11-13 08:06:45 51°19.406 2°52.722 16.5564 0.074522 0.437807 -1.313985
2009-11-13 08:06:50 51°19.422 2°52.725 16.5554 0.074522 0.437807 -1.313985
2009-11-13 08:06:55 51°19.438 2°52.727 16.555 0.074522 0.437807 -1.313985
2009-11-13 08:07:00 51°19.455 2°52.73 16.5423 0.074522 0.437807 -1.313985
2009-11-13 08:07:05 51°19.471 2°52.733 16.537 0.074522 0.437815 -1.313985
2009-11-13 08:07:10 51°19.488 2°52.735 16.556 0.074522 0.437815 -1.313985
2009-11-13 08:07:15 51°19.504 2°52.738 16.55 0.074522 0.437807 -1.313985
2009-11-13 08:07:20 51°19.521 2°52.741 16.5681 0.074522 0.437815 -1.313985
2009-11-13 08:07:25 51°19.537 2°52.744 16.5407 0.074522 0.437807 -1.313985
2009-11-13 08:07:30 51°19.553 2°52.748 16.5611 0.074522 0.437807 -1.313985
2009-11-13 08:07:35 51°19.569 2°52.75 16.5445 0.074522 0.437824 -1.313985
2009-11-13 08:07:40 51°19.586 2°52.755 16.5684 0.074522 0.437807 -1.313985
2009-11-13 08:07:45 51°19.602 2°52.757 16.5613 0.074522 0.437815 -1.313985
2009-11-13 08:07:50 51°19.619 2°52.76 16.5742 0.074522 0.437824 -1.313985
2009-11-13 08:07:55 51°19.635 2°52.763 16.5589 0.074522 0.437815 -1.313985
2009-11-13 08:08:00 51°19.651 2°52.767 16.5596 0.074522 0.437815 -1.313985
2009-11-13 08:08:05 51°19.668 2°52.77 16.5574 0.074522 0.437841 -1.313985
2009-11-13 08:08:10 51°19.684 2°52.773 16.5652 0.074522 0.437824 -1.313985
2009-11-13 08:08:15 51°19.701 2°52.775 16.5601 0.074522 0.437824 -1.313985
2009-11-13 08:08:20 51°19.717 2°52.779 16.5772 0.074522 0.437815 -1.313985
2009-11-13 08:08:25 51°19.734 2°52.782 16.5774 0.074522 0.437832 -1.313985
2009-11-13 08:08:30 51°19.75 2°52.785 16.5704 0.074522 0.437832 -1.313985
2009-11-13 08:08:35 51°19.767 2°52.788 16.5843 0.074522 0.437815 -1.313985
2009-11-13 08:08:40 51°19.783 2°52.79 16.5574 0.074522 0.437832 -1.313985
2009-11-13 08:08:45 51°19.799 2°52.793 16.5699 0.074522 0.437815 -1.313985
2009-11-13 08:08:50 51°19.815 2°52.796 16.5546 0.074522 0.437832 -1.313985
2009-11-13 08:08:55 51°19.832 2°52.799 16.5794 0.074522 0.437849 -1.313985
2009-11-13 08:09:00 51°19.848 2°52.802 16.5736 0.074522 0.437849 -1.313985
2009-11-13 08:09:05 51°19.865 2°52.804 16.5797 0.074522 0.437832 -1.313985
2009-11-13 08:09:10 51°19.881 2°52.808 16.5608 0.074522 0.437849 -1.313985
2009-11-13 08:09:15 51°19.898 2°52.81 16.5854 0.074522 0.437824 -1.313985
2009-11-13 08:09:20 51°19.914 2°52.813 16.5835 0.074522 0.437832 -1.313985
2009-11-13 08:09:25 51°19.931 2°52.815 16.5904 0.074522 0.437824 -1.313985
2009-11-13 08:09:30 51°19.947 2°52.819 16.5795 0.074522 0.437824 -1.313985
2009-11-13 08:09:35 51°19.964 2°52.822 16.586 0.074522 0.437824 -1.313985
2009-11-13 08:09:40 51°19.981 2°52.824 16.5957 0.074522 0.437815 -1.313985
2009-11-13 08:09:45 51°19.997 2°52.828 16.5704 0.074522 0.437824 -1.313985
2009-11-13 08:09:50 51°20.014 2°52.83 16.5912 0.074522 0.437815 -1.313985
2009-11-13 08:09:55 51°20.03 2°52.833 16.5992 0.074522 0.437824 -1.313985
2009-11-13 08:10:00 51°20.047 2°52.837 16.5704 0.074522 0.437824 -1.313985
2009-11-13 08:10:05 51°20.063 2°52.838 16.5929 0.074522 0.437815 -1.313985
2009-11-13 08:10:10 51°20.079 2°52.842 16.5725 0.074522 0.437832 -1.313985
2009-11-13 08:10:15 51°20.096 2°52.843 16.5885 0.074522 0.437832 -1.313985
2009-11-13 08:10:20 51°20.113 2°52.847 16.5754 0.074522 0.437849 -1.313985
2009-11-13 08:10:25 51°20.129 2°52.849 16.5912 0.074522 0.437832 -1.313985
2009-11-13 08:10:30 51°20.145 2°52.852 16.6015 0.074522 0.437832 -1.313985
2009-11-13 08:10:35 51°20.162 2°52.856 16.6034 0.074522 0.437841 -1.313985
2009-11-13 08:10:40 51°20.178 2°52.857 16.6001 0.074522 0.437841 -1.313985
2009-11-13 08:10:45 51°20.195 2°52.861 16.609 0.074522 0.437824 -1.313985
2009-11-13 08:10:50 51°20.211 2°52.865 16.59 0.074522 0.437824 -1.313985
2009-11-13 08:10:55 51°20.228 2°52.867 16.5941 0.074522 0.437841 -1.313985
2009-11-13 08:11:00 51°20.244 2°52.871 16.5876 0.074522 0.437841 -1.313985
2009-11-13 08:11:05 51°20.26 2°52.872 16.6073 0.074522 0.437807 -1.313985
2009-11-13 08:11:10 51°20.277 2°52.877 16.6004 0.074522 0.437832 -1.313985
2009-11-13 08:11:15 51°20.293 2°52.878 16.5999 0.074522 0.437815 -1.313985
2009-11-13 08:11:20 51°20.309 2°52.882 16.607 0.074522 0.437841 -1.313985
2009-11-13 08:11:25 51°20.325 2°52.885 16.6086 0.074522 0.437832 -1.313985
2009-11-13 08:11:30 51°20.342 2°52.888 16.6104 0.074522 0.437832 -1.313985
2009-11-13 08:11:35 51°20.358 2°52.89 16.609 0.074522 0.437841 -1.313985
2009-11-13 08:11:40 51°20.375 2°52.894 16.6013 0.074522 0.437832 -1.313985
2009-11-13 08:11:45 51°20.391 2°52.896 16.6055 0.074522 0.437832 -1.313985
2009-11-13 08:11:50 51°20.408 2°52.9 16.5894 0.074522 0.437849 -1.313985
2009-11-13 08:11:55 51°20.424 2°52.902 16.6083 0.074522 0.437832 -1.313985
2009-11-13 08:12:00 51°20.44 2°52.907 16.6046 0.074522 0.437832 -1.313985
2009-11-13 08:12:05 51°20.457 2°52.911 16.6 0.074522 0.437841 -1.313985
2009-11-13 08:12:10 51°20.473 2°52.914 16.6213 0.074522 0.437815 -1.313985
2009-11-13 08:12:15 51°20.489 2°52.921 16.6263 0.074522 0.437824 -1.313985
2009-11-13 08:12:20 51°20.505 2°52.926 16.6065 0.074522 0.437824 -1.313985
2009-11-13 08:12:25 51°20.521 2°52.93 16.6346 0.074522 0.437815 -1.313985
2009-11-13 08:12:30 51°20.537 2°52.938 16.6144 0.074522 0.437815 -1.313985
2009-11-13 08:12:35 51°20.553 2°52.941 16.6259 0.074522 0.437841 -1.313985
2009-11-13 08:12:40 51°20.569 2°52.948 16.6246 0.074522 0.437824 -1.313985
2009-11-13 08:12:45 51°20.585 2°52.953 16.6205 0.074522 0.437849 -1.313985
2009-11-13 08:12:50 51°20.602 2°52.959 16.6086 0.074522 0.437832 -1.313985
2009-11-13 08:12:55 51°20.618 2°52.964 16.6343 0.074522 0.437832 -1.313985
2009-11-13 08:13:00 51°20.634 2°52.971 16.6157 0.074522 0.437832 -1.313985
2009-11-13 08:13:05 51°20.65 2°52.975 16.6135 0.074522 0.437832 -1.313985
2009-11-13 08:13:10 51°20.666 2°52.982 16.6256 0.074522 0.437824 -1.313985
2009-11-13 08:13:15 51°20.682 2°52.988 16.6235 0.074522 0.437841 -1.313985
2009-11-13 08:13:20 51°20.698 2°52.993 16.6411 0.074522 0.437849 -1.313985
2009-11-13 08:13:25 51°20.714 2°53 14.1691 0.069891 0.408526 -1.070216
2009-11-13 08:13:30 51°20.73 2°53.005 12.9547 0.069891 0.408526 -1.070216
2009-11-13 08:13:35 51°20.746 2°53.01 12.659 0.093252 0.546769 -1.070216
2009-11-13 08:13:40 51°20.762 2°53.017 12.554 0.09068 0.534666 -1.000568
2009-11-13 08:13:45 51°20.777 2°53.025 12.2392 0.709916 4.650362 -1.000568
2009-11-13 08:13:50 51°20.793 2°53.029 12.1237 1.451141 10.071591 -1.000568
2009-11-13 08:13:55 51°20.809 2°53.037 12.1202 2.06917 15.121679 -1.10504
2009-11-13 08:14:00 51°20.825 2°53.042 12.0654 2.06917 15.121679 -1.10504
2009-11-13 08:14:05 51°20.841 2°53.047 12.0469 3.279728 25.76563 -1.000568
2009-11-13 08:14:10 51°20.856 2°53.054 12.0285 3.350573 26.99904 -1.070216
2009-11-13 08:14:15 51°20.873 2°53.059 12.053 3.784111 31.405037 -1.10504
2009-11-13 08:14:20 51°20.889 2°53.065 11.9656 3.880016 32.646039 -1.139864
2009-11-13 08:14:25 51°20.904 2°53.071 11.9603 3.911439 33.267796 -1.139864
2009-11-13 08:14:30 51°20.921 2°53.076 11.9161 3.911439 33.267796 -1.139864
2009-11-13 08:14:35 51°20.937 2°53.082 11.9199 3.915589 33.483021 -1.174688
2009-11-13 08:14:40 51°20.952 2°53.089 11.9205 3.92399 33.695911 -1.174688
2009-11-13 08:14:45 51°20.968 2°53.092 11.8991 3.926376 33.798409 -1.139864
2009-11-13 08:14:50 51°20.984 2°53.1 11.8741 3.928347 33.877953 -1.174688
2009-11-13 08:14:55 51°21 2°53.103 11.885 3.930318 33.942946 -1.174688
2009-11-13 08:15:00 51°21.016 2°53.111 11.8782 3.930318 33.942946 -1.174688
2009-11-13 08:15:05 51°21.031 2°53.117 11.8801 3.932808 34.013915 -1.174688
2009-11-13 08:15:10 51°21.048 2°53.123 11.869 3.935608 34.082589 -1.174688
2009-11-13 08:15:15 51°21.063 2°53.13 11.8636 3.934364 34.102073 -1.174688
2009-11-13 08:15:20 51°21.08 2°53.134 11.8665 3.654567 31.439599 -1.174688
2009-11-13 08:15:25 51°21.095 2°53.142 11.8618 3.939757 34.198497 -1.174688
2009-11-13 08:15:30 51°21.111 2°53.147 11.8476 3.939757 34.198497 -1.174688
2009-11-13 08:15:35 51°21.127 2°53.153 11.8681 3.937891 34.196258 -1.174688
2009-11-13 08:15:41 51°21.146 2°53.161 11.8423 3.93675 34.201055 -1.174688
2009-11-13 08:15:46 51°21.162 2°53.166 11.84 3.935713 34.198139 -1.174688
2009-11-13 08:15:51 51°21.178 2°53.173 11.8471 3.935195 34.205802 -1.174688
2009-11-13 08:15:56 51°21.194 2°53.179 11.8239 3.934158 34.206061 -1.174688
2009-11-13 08:16:01 51°21.21 2°53.184 11.8071 3.934158 34.206061 -1.174688
2009-11-13 08:16:06 51°21.226 2°53.19 11.8242 3.933951 34.211193 -1.174688
2009-11-13 08:16:11 51°21.242 2°53.197 11.8129 3.933329 34.213097 -1.174688
2009-11-13 08:16:16 51°21.259 2°53.202 11.8027 3.932085 34.206582 -1.174688
2009-11-13 08:16:20 51°21.271 2°53.208 11.7989 3.932396 34.215956 -1.174688
2009-11-13 08:16:25 51°21.287 2°53.213 11.8073 3.9325 34.226501 -1.174688
2009-11-13 08:16:30 51°21.303 2°53.218 11.7985 3.9325 34.226501 -1.174688
2009-11-13 08:16:35 51°21.319 2°53.225 11.7985 3.932603 34.240234 -1.174688
2009-11-13 08:16:40 51°21.336 2°53.231 11.8224 3.931774 34.240931 -1.174688
2009-11-13 08:16:45 51°21.352 2°53.238 11.795 3.931048 34.241043 -1.174688
2009-11-13 08:16:50 51°21.368 2°53.244 11.7815 3.930634 34.247365 -1.174688
2009-11-13 08:16:55 51°21.384 2°53.249 11.7992 3.930115 34.250292 -1.174688
2009-11-13 08:17:00 51°21.4 2°53.255 11.7799 3.930115 34.250292 -1.174688
2009-11-13 08:17:05 51°21.416 2°53.261 11.7791 3.929078 34.241008 -1.174688
2009-11-13 08:17:10 51°21.432 2°53.267 11.7697 3.928352 34.235545 -1.174688
2009-11-13 08:17:15 51°21.449 2°53.273 11.7838 3.927627 34.228488 -1.174688
2009-11-13 08:17:20 51°21.465 2°53.28 11.7804 3.927212 34.227642 -1.174688
2009-11-13 08:17:25 51°21.481 2°53.287 11.769 3.926486 34.22855 -1.174688
2009-11-13 08:17:30 51°21.497 2°53.293 11.7631 3.926486 34.22855 -1.174688
2009-11-13 08:17:35 51°21.513 2°53.299 11.7708 3.925864 34.226483 -1.174688
2009-11-13 08:17:40 51°21.53 2°53.306 11.7666 3.925242 34.228401 -1.174688
2009-11-13 08:17:45 51°21.546 2°53.312 11.7649 3.92462 34.226334 -1.174688
2009-11-13 08:17:50 51°21.562 2°53.319 11.7731 3.923479 34.216035 -1.174688
2009-11-13 08:17:55 51°21.578 2°53.324 11.7707 3.923168 34.217791 -1.174688
2009-11-13 08:18:00 51°21.594 2°53.331 11.7766 3.923168 34.217791 -1.174688
2009-11-13 08:18:05 51°21.61 2°53.336 11.7932 3.922961 34.22215 -1.174688
2009-11-13 08:18:10 51°21.626 2°53.343 11.7888 3.922442 34.221092 -1.174688
2009-11-13 08:18:14 51°21.639 2°53.347 11.777 3.922131 34.221254 -1.174688
2009-11-13 08:18:20 51°21.659 2°53.354 11.7873 3.921509 34.215199 -1.174688
2009-11-13 08:18:25 51°21.675 2°53.361 11.7956 3.921094 34.209567 -1.174688
2009-11-13 08:18:30 51°21.691 2°53.366 11.7812 3.921094 34.209567 -1.174688
2009-11-13 08:18:35 51°21.707 2°53.373 11.7946 3.920783 34.203352 -1.174688
2009-11-13 08:18:40 51°21.723 2°53.378 11.7865 3.920679 34.198359 -1.209513
2009-11-13 08:18:45 51°21.74 2°53.385 11.7868 3.920887 34.19958 -1.174688
2009-11-13 08:18:50 51°21.756 2°53.389 11.7969 3.920887 34.202767 -1.174688
2009-11-13 08:18:55 51°21.772 2°53.395 11.7918 3.920576 34.19735 -1.174688
2009-11-13 08:19:00 51°21.788 2°53.402 11.7942 3.920576 34.19735 -1.174688
2009-11-13 08:19:05 51°21.805 2°53.406 11.8088 3.920265 34.193527 -1.174688
2009-11-13 08:19:10 51°21.821 2°53.413 11.7989 3.920161 34.191722 -1.174688
2009-11-13 08:19:15 51°21.837 2°53.419 11.8041 3.920161 34.194111 -1.174688
2009-11-13 08:19:20 51°21.853 2°53.425 11.8105 3.920265 34.193527 -1.174688
2009-11-13 08:19:25 51°21.87 2°53.43 11.8011 3.920161 34.191722 -1.174688
2009-11-13 08:19:30 51°21.886 2°53.437 11.8119 3.920161 34.191722 -1.174688
2009-11-13 08:19:35 51°21.902 2°53.442 11.8084 3.920368 34.192943 -1.174688
2009-11-13 08:19:40 51°21.919 2°53.448 11.8126 3.920057 34.186731 -1.209513
2009-11-13 08:19:45 51°21.935 2°53.454 11.8122 3.920057 34.185935 -1.174688
2009-11-13 08:19:50 51°21.951 2°53.46 11.8151 3.91985 34.181529 -1.174688
2009-11-13 08:19:55 51°21.968 2°53.464 11.8071 3.919435 34.175107 -1.174688
2009-11-13 08:20:00 51°21.984 2°53.471 11.8127 3.919435 34.175107 -1.174688
2009-11-13 08:20:05 51°22 2°53.476 11.8115 3.919331 34.173303 -1.174688
2009-11-13 08:20:10 51°22.017 2°53.481 11.8078 3.919124 34.168899 -1.174688
2009-11-13 08:20:14 51°22.029 2°53.487 11.8094 3.919124 34.167307 -1.174688
2009-11-13 08:20:20 51°22.049 2°53.492 11.8154 3.919746 34.175745 -1.209513
2009-11-13 08:20:25 51°22.065 2°53.498 11.8028 3.920161 34.179779 -1.209513
2009-11-13 08:20:30 51°22.081 2°53.503 11.8014 3.920161 34.179779 -1.209513
2009-11-13 08:20:35 51°22.098 2°53.509 11.8094 3.91985 34.176753 -1.174688
2009-11-13 08:20:40 51°22.114 2°53.514 11.8046 3.919953 34.177762 -1.174688
2009-11-13 08:20:45 51°22.13 2°53.521 11.809 3.919642 34.174736 -1.209513
2009-11-13 08:20:50 51°22.147 2°53.525 11.8057 3.919746 34.177336 -1.174688
2009-11-13 08:20:55 51°22.163 2°53.531 11.8169 3.918709 34.167252 -1.174688
2009-11-13 08:21:00 51°22.179 2°53.539 11.8113 3.918709 34.167252 -1.174688
2009-11-13 08:21:05 51°22.196 2°53.544 11.7984 3.919642 34.17792 -1.174688
2009-11-13 08:21:10 51°22.212 2°53.549 11.8021 3.919124 34.174469 -1.174688
2009-11-13 08:21:15 51°22.228 2°53.556 11.8033 3.919228 34.174682 -1.174688
2009-11-13 08:21:20 51°22.244 2°53.561 11.7993 3.919435 34.176699 -1.174688
2009-11-13 08:21:25 51°22.261 2°53.567 11.8053 3.920887 34.190022 -1.209513
2009-11-13 08:21:30 51°22.277 2°53.574 11.8073 3.920887 34.190022 -1.209513
2009-11-13 08:21:35 51°22.293 2°53.579 11.8123 3.920783 34.189014 -1.174688
2009-11-13 08:21:40 51°22.31 2°53.585 11.7993 3.921198 34.196234 -1.174688
2009-11-13 08:21:45 51°22.326 2°53.592 11.8051 3.921301 34.198836 -1.174688
2009-11-13 08:21:50 51°22.342 2°53.598 11.8009 3.921094 34.197615 -1.174688
2009-11-13 08:21:55 51°22.358 2°53.604 11.7936 3.920783 34.195385 -1.174688
2009-11-13 08:22:00 51°22.374 2°53.61 11.79 3.920783 34.195385 -1.174688
2009-11-13 08:22:05 51°22.391 2°53.616 11.7937 3.920576 34.191774 -1.174688
2009-11-13 08:22:10 51°22.407 2°53.622 11.7933 3.919331 34.17967 -1.174688
2009-11-13 08:22:15 51°22.423 2°53.629 11.7921 3.920368 34.189757 -1.174688
2009-11-13 08:22:20 51°22.44 2°53.633 11.7967 3.920161 34.189332 -1.174688
2009-11-13 08:22:25 51°22.456 2°53.641 11.7972 3.919954 34.190501 -1.174688
2009-11-13 08:22:30 51°22.472 2°53.644 11.7922 3.919954 34.190501 -1.174688
2009-11-13 08:22:35 51°22.489 2°53.652 11.7838 3.91985 34.191881 -1.174688
2009-11-13 08:22:40 51°22.505 2°53.657 11.7837 3.919539 34.192041 -1.174688
2009-11-13 08:22:45 51°22.521 2°53.663 11.7778 3.919124 34.188802 -1.174688
2009-11-13 08:22:50 51°22.537 2°53.669 11.7779 3.918709 34.185562 -1.174688
2009-11-13 08:22:55 51°22.554 2°53.676 11.7788 3.918294 34.18073 -1.174688
2009-11-13 08:23:00 51°22.57 2°53.681 11.7745 3.918294 34.18073 -1.174688
2009-11-13 08:23:05 51°22.586 2°53.688 11.7773 3.91788 34.176694 -1.174688
2009-11-13 08:23:10 51°22.602 2°53.695 11.7704 3.917569 34.176853 -1.174688
2009-11-13 08:23:14 51°22.615 2°53.699 11.7669 3.917258 34.178605 -1.174688
2009-11-13 08:23:20 51°22.635 2°53.707 11.7672 3.91705 34.18057 -1.174688
2009-11-13 08:23:25 51°22.651 2°53.713 11.7643 3.916532 34.177914 -1.174688
2009-11-13 08:23:30 51°22.667 2°53.717 11.7625 3.916532 34.177914 -1.174688
2009-11-13 08:23:35 51°22.683 2°53.725 11.7624 3.915806 34.171645 -1.174688
2009-11-13 08:23:40 51°22.7 2°53.729 11.7619 3.914873 34.164951 -1.174688
2009-11-13 08:23:45 51°22.716 2°53.735 11.7642 3.914562 34.163516 -1.174688
2009-11-13 08:23:50 51°22.732 2°53.741 11.7559 3.914043 34.161656 -1.174688
2009-11-13 08:23:55 51°22.749 2°53.745 11.7544 3.913732 34.161017 -1.174688
2009-11-13 08:24:00 51°22.765 2°53.752 11.748 3.913732 34.161017 -1.174688
2009-11-13 08:24:05 51°22.782 2°53.757 11.7444 3.913421 34.161972 -1.174688
2009-11-13 08:24:10 51°22.798 2°53.763 11.737 3.912384 34.153469 -1.174688
2009-11-13 08:24:15 51°22.815 2°53.77 11.7422 3.91197 34.151024 -1.174688
2009-11-13 08:24:20 51°22.83 2°53.775 11.7328 3.911451 34.147569 -1.174688
2009-11-13 08:24:25 51°22.847 2°53.781 11.7345 3.910725 34.142891 -1.174688
2009-11-13 08:24:30 51°22.863 2°53.787 11.7313 3.910725 34.142891 -1.174688
2009-11-13 08:24:35 51°22.88 2°53.792 11.7278 3.910311 34.143631 -1.174688
2009-11-13 08:24:40 51°22.896 2°53.798 11.7319 3.909481 34.139536 -1.174688
2009-11-13 08:24:45 51°22.912 2°53.803 11.7295 3.909066 34.138683 -1.174688
2009-11-13 08:24:50 51°22.929 2°53.809 11.7238 3.908548 34.136819 -1.174688
2009-11-13 08:24:55 51°22.945 2°53.814 11.7242 3.908237 34.136976 -1.174688
2009-11-13 08:25:00 51°22.962 2°53.82 11.718 3.908237 34.136976 -1.174688
2009-11-13 08:25:05 51°22.978 2°53.826 11.7233 3.907719 34.134316 -1.174688
2009-11-13 08:25:10 51°22.995 2°53.832 11.7248 3.907304 34.13426 -1.174688
2009-11-13 08:25:15 51°23.012 2°53.836 11.7191 3.906682 34.129792 -1.174688
2009-11-13 08:25:20 51°23.028 2°53.844 11.7264 3.906267 34.127344 -1.174688
2009-11-13 08:25:25 51°23.045 2°53.848 11.7282 3.905645 34.122876 -1.174688
2009-11-13 08:25:30 51°23.061 2°53.854 11.7188 3.905645 34.122876 -1.174688
2009-11-13 08:25:34 51°23.074 2°53.859 11.7277 3.905334 34.121438 -1.174688
2009-11-13 08:25:40 51°23.094 2°53.865 11.716 3.904815 34.118777 -1.174688
2009-11-13 08:25:45 51°23.11 2°53.873 11.7144 3.904504 34.115745 -1.174688
2009-11-13 08:25:50 51°23.127 2°53.877 11.7152 3.903986 34.112287 -1.174688
2009-11-13 08:25:55 51°23.143 2°53.884 11.7151 3.903467 34.107235 -1.174688
2009-11-13 08:26:00 51°23.16 2°53.888 11.7195 3.903467 34.107235 -1.174688
2009-11-13 08:26:05 51°23.176 2°53.896 11.7075 3.902949 34.101386 -1.174688
2009-11-13 08:26:10 51°23.193 2°53.9 11.7065 3.902741 34.098569 -1.174688
2009-11-13 08:26:15 51°23.209 2°53.907 11.7043 3.902534 34.099734 -1.174688
2009-11-13 08:26:20 51°23.226 2°53.912 11.7009 3.901808 34.096643 -1.174688
2009-11-13 08:26:25 51°23.242 2°53.917 11.7082 3.90129 34.092387 -1.174688
2009-11-13 08:26:30 51°23.258 2°53.924 11.7101 3.90129 34.092387 -1.174688
2009-11-13 08:26:35 51°23.274 2°53.931 11.7005 3.900668 34.087916 -1.174688
2009-11-13 08:26:40 51°23.291 2°53.935 11.6993 3.900253 34.08467 -1.174688
2009-11-13 08:26:45 51°23.307 2°53.941 11.7032 3.899838 34.08461 -1.174688
2009-11-13 08:26:50 51°23.323 2°53.948 11.6992 3.89932 34.081945 -1.174688
2009-11-13 08:26:55 51°23.34 2°53.951 11.6957 3.898698 34.077474 -1.174688
2009-11-13 08:27:00 51°23.356 2°53.957 11.7047 3.898698 34.077474 -1.174688
2009-11-13 08:27:05 51°23.373 2°53.963 11.7034 3.897972 34.071991 -1.174688
2009-11-13 08:27:10 51°23.389 2°53.966 11.7021 3.897661 34.068959 -1.174688
2009-11-13 08:27:15 51°23.405 2°53.973 11.6946 3.897557 34.069541 -1.174688
2009-11-13 08:27:20 51°23.422 2°53.978 11.6962 3.897143 34.06709 -1.174688
2009-11-13 08:27:25 51°23.439 2°53.984 11.6977 3.896935 34.066661 -1.174688
2009-11-13 08:27:30 51°23.455 2°53.989 11.7022 3.896935 34.066661 -1.174688
2009-11-13 08:27:34 51°23.468 2°53.994 11.7001 3.896728 34.064639 -1.174688
2009-11-13 08:27:40 51°23.488 2°54 11.6967 3.89652 34.061822 -1.174688
2009-11-13 08:27:45 51°23.505 2°54.006 11.6967 3.896002 34.056768 -1.174688
2009-11-13 08:27:50 51°23.522 2°54.01 11.6988 3.896106 34.060167 -1.174688
2009-11-13 08:27:55 51°23.538 2°54.016 11.6966 3.896106 34.060963 -1.174688
2009-11-13 08:28:00 51°23.555 2°54.021 11.7033 3.896106 34.060963 -1.174688
2009-11-13 08:28:05 51°23.572 2°54.026 11.6973 3.895587 34.056705 -1.174688
2009-11-13 08:28:10 51°23.588 2°54.032 11.6977 3.895795 34.05793 -1.174688
2009-11-13 08:28:15 51°23.605 2°54.037 11.6949 3.89538 34.055479 -1.174688
2009-11-13 08:28:20 51°23.621 2°54.043 11.7046 3.894965 34.051435 -1.174688
2009-11-13 08:28:25 51°23.638 2°54.049 11.7075 3.895587 34.057501 -1.174688
2009-11-13 08:28:30 51°23.655 2°54.055 11.6966 3.895587 34.057501 -1.174688
2009-11-13 08:28:35 51°23.671 2°54.061 11.7074 3.895484 34.055694 -1.174688
2009-11-13 08:28:40 51°23.688 2°54.066 11.6964 3.893928 34.041327 -1.174688
2009-11-13 08:28:45 51°23.704 2°54.073 11.6948 3.895069 34.053242 -1.174688
2009-11-13 08:28:50 51°23.721 2°54.076 11.6994 3.895172 34.053457 -1.174688
2009-11-13 08:28:55 51°23.738 2°54.085 11.7032 3.894965 34.049844 -1.174688
2009-11-13 08:29:00 51°23.755 2°54.088 11.7018 3.894965 34.049844 -1.174688
2009-11-13 08:29:05 51°23.771 2°54.095 11.7008 3.894965 34.049844 -1.174688
2009-11-13 08:29:10 51°23.787 2°54.103 11.7043 3.894654 34.046811 -1.174688
2009-11-13 08:29:15 51°23.804 2°54.107 11.6971 3.89538 34.054683 -1.174688
2009-11-13 08:29:20 51°23.821 2°54.113 11.6969 3.894758 34.048618 -1.174688
2009-11-13 08:29:25 51°23.837 2°54.12 11.7001 3.895276 34.053672 -1.174688
2009-11-13 08:29:30 51°23.854 2°54.124 11.6992 3.895276 34.053672 -1.174688
2009-11-13 08:29:35 51°23.87 2°54.13 11.7028 3.894965 34.05064 -1.174688
2009-11-13 08:29:40 51°23.887 2°54.136 11.7058 3.895172 34.051865 -1.174688
2009-11-13 08:29:45 51°23.904 2°54.14 11.7083 3.894654 34.046811 -1.174688
2009-11-13 08:29:50 51°23.92 2°54.146 11.7079 3.895484 34.055694 -1.174688
2009-11-13 08:29:55 51°23.937 2°54.152 11.7021 3.894861 34.050425 -1.174688
2009-11-13 08:30:00 51°23.954 2°54.156 11.7065 3.894861 34.050425 -1.174688
2009-11-13 08:30:05 51°23.971 2°54.165 11.7087 3.894758 34.049414 -1.174688
2009-11-13 08:30:10 51°23.988 2°54.167 11.7141 3.894861 34.050425 -1.174688
2009-11-13 08:30:15 51°24.004 2°54.175 11.7146 3.895484 34.054898 -1.174688
2009-11-13 08:30:20 51°24.02 2°54.181 11.7181 3.894861 34.047241 -1.174688
2009-11-13 08:30:25 51°24.037 2°54.187 11.7191 3.89538 34.051499 -1.174688
2009-11-13 08:30:30 51°24.054 2°54.192 11.7234 3.89538 34.051499 -1.174688
2009-11-13 08:30:34 51°24.067 2°54.197 11.7352 3.895898 34.056553 -1.174688
2009-11-13 08:30:40 51°24.087 2°54.205 11.7337 3.896106 34.056187 -1.174688
2009-11-13 08:30:45 51°24.104 2°54.209 11.7372 3.896417 34.057627 -1.174688
2009-11-13 08:30:50 51°24.12 2°54.217 11.7385 3.896728 34.058271 -1.174688
2009-11-13 08:30:55 51°24.137 2°54.221 11.7412 3.89735 34.062743 -1.174688
2009-11-13 08:31:00 51°24.153 2°54.229 11.7404 3.89735 34.062743 -1.174688
2009-11-13 08:31:05 51°24.17 2°54.234 11.745 3.897557 34.062377 -1.174688
2009-11-13 08:31:10 51°24.187 2°54.241 11.7497 3.897972 34.06244 -1.174688
2009-11-13 08:31:15 51°24.203 2°54.244 11.7597 3.899009 34.067769 -1.174688
2009-11-13 08:31:20 51°24.22 2°54.253 11.7588 3.899527 34.069638 -1.174688
2009-11-13 08:31:25 51°24.236 2°54.255 11.7651 3.900668 34.077567 -1.174688
2009-11-13 08:31:30 51°24.252 2°54.264 11.7619 3.900668 34.077567 -1.174688
2009-11-13 08:31:35 51°24.269 2°54.268 11.7633 3.901186 34.080231 -1.174688
2009-11-13 08:31:40 51°24.286 2°54.275 11.7649 3.901912 34.084915 -1.139864
2009-11-13 08:31:45 51°24.302 2°54.281 11.7712 3.902327 34.085772 -1.174688
2009-11-13 08:31:50 51°24.318 2°54.285 11.7712 3.902638 34.084028 -1.174688
2009-11-13 08:31:55 51°24.334 2°54.291 11.7714 3.903052 34.083294 -1.139864
2009-11-13 08:32:00 51°24.351 2°54.297 11.7733 3.903052 34.083294 -1.139864
2009-11-13 08:32:05 51°24.367 2°54.303 11.7749 3.903674 34.08617 -1.139864
2009-11-13 08:32:10 51°24.384 2°54.309 11.7812 3.904504 34.093453 -1.174688
2009-11-13 08:32:15 51°24.4 2°54.313 11.7868 3.904711 34.093086 -1.174688
2009-11-13 08:32:20 51°24.416 2°54.321 11.7836 3.905126 34.094738 -1.174688
2009-11-13 08:32:25 51°24.433 2°54.325 11.7863 3.905541 34.096389 -1.174688
2009-11-13 08:32:30 51°24.449 2°54.332 11.7919 3.905541 34.096389 -1.174688
2009-11-13 08:32:35 51°24.465 2°54.338 11.795 3.906163 34.10006 -1.174688
2009-11-13 08:32:40 51°24.481 2°54.341 11.8004 3.907615 34.112602 -1.174688
2009-11-13 08:32:45 51°24.497 2°54.349 11.7979 3.907718 34.110429 -1.174688
2009-11-13 08:32:50 51°24.514 2°54.353 11.8062 3.907926 34.109266 -1.174688
2009-11-13 08:32:55 51°24.53 2°54.357 11.801 3.908548 34.112935 -1.174688
2009-11-13 08:33:00 51°24.546 2°54.365 11.8007 3.908548 34.112935 -1.174688
2009-11-13 08:33:05 51°24.562 2°54.368 11.8102 3.909066 34.1148 -1.139864
2009-11-13 08:33:10 51°24.577 2°54.376 11.8126 3.909688 34.117673 -1.139864
2009-11-13 08:33:15 51°24.594 2°54.381 11.8082 3.910103 34.118528 -1.139864
2009-11-13 08:33:20 51°24.61 2°54.385 11.813 3.910414 34.119169 -1.174688
2009-11-13 08:33:25 51°24.626 2°54.392 11.8236 3.91114 34.124641 -1.174688
2009-11-13 08:33:30 51°24.642 2°54.397 11.8227 3.91114 34.124641 -1.174688
2009-11-13 08:33:35 51°24.658 2°54.402 11.8244 3.911658 34.128095 -1.174688
2009-11-13 08:33:40 51°24.673 2°54.409 11.8206 3.911969 34.128736 -1.139864
2009-11-13 08:33:45 51°24.69 2°54.413 11.8317 3.912073 34.126563 -1.139864
2009-11-13 08:33:50 51°24.706 2°54.42 11.8328 3.912591 34.128426 -1.174688
2009-11-13 08:33:55 51°24.722 2°54.423 11.8358 3.912799 34.127263 -1.174688
2009-11-13 08:34:00 51°24.738 2°54.432 11.8413 3.912799 34.127263 -1.174688
2009-11-13 08:34:05 51°24.754 2°54.433 11.8409 3.91311 34.126313 -1.139864
2009-11-13 08:34:10 51°24.77 2°54.442 11.8481 3.913836 34.131783 -1.174688
2009-11-13 08:34:15 51°24.786 2°54.444 11.8559 3.915184 34.143304 -1.139864
2009-11-13 08:34:20 51°24.802 2°54.452 11.852 3.915391 34.14214 -1.139864
2009-11-13 08:34:25 51°24.818 2°54.455 11.8636 3.915806 34.142993 -1.139864
2009-11-13 08:34:30 51°24.834 2°54.46 11.892 3.915806 34.142993 -1.139864
2009-11-13 08:34:35 51°24.85 2°54.466 11.8669 3.915909 34.140821 -1.139864
2009-11-13 08:34:40 51°24.866 2°54.471 11.8693 3.916428 34.141887 -1.139864
2009-11-13 08:34:45 51°24.882 2°54.476 11.8769 3.91622 34.135102 -1.174688
2009-11-13 08:34:50 51°24.898 2°54.483 11.8756 3.916324 34.131343 -1.139864
2009-11-13 08:34:55 51°24.914 2°54.488 11.8806 3.916946 34.132623 -1.174688
2009-11-13 08:35:00 51°24.93 2°54.494 11.8866 3.916946 34.132623 -1.174688
2009-11-13 08:35:05 51°24.946 2°54.501 11.8863 3.915909 34.1154 -1.139864
2009-11-13 08:35:10 51°24.963 2°54.505 11.8918 3.916738 34.118697 -1.139864
2009-11-13 08:35:15 51°24.979 2°54.512 11.8994 3.91819 34.131214 -1.139864
2009-11-13 08:35:20 51°24.995 2°54.518 11.9002 3.918812 34.134877 -1.139864
2009-11-13 08:35:25 51°25.011 2°54.524 11.9072 3.920368 34.146812 -1.139864
2009-11-13 08:35:30 51°25.027 2°54.53 11.9075 3.920368 34.146812 -1.139864
2009-11-13 08:35:35 51°25.043 2°54.534 11.918 3.921197 34.151694 -1.139864
2009-11-13 08:35:40 51°25.059 2°54.542 11.9134 3.922338 34.159598 -1.139864
2009-11-13 08:35:45 51°25.075 2°54.546 11.9196 3.923167 34.163684 -1.139864
2009-11-13 08:35:50 51°25.091 2°54.552 11.9263 3.923582 34.162153 -1.139864
2009-11-13 08:35:55 51°25.107 2°54.557 11.9268 3.924723 34.170054 -1.139864
2009-11-13 08:36:00 51°25.122 2°54.562 11.9325 3.924723 34.170054 -1.139864
2009-11-13 08:36:05 51°25.138 2°54.567 11.9384 3.925241 34.169529 -1.139864
2009-11-13 08:36:10 51°25.154 2°54.57 11.95 3.926278 34.175627 -1.139864
2009-11-13 08:36:15 51°25.17 2°54.579 11.9537 3.927626 34.184745 -1.139864
2009-11-13 08:36:20 51°25.186 2°54.58 11.9596 3.928559 34.190628 -1.139864
2009-11-13 08:36:25 51°25.202 2°54.587 11.966 3.929285 34.193703 -1.139864
2009-11-13 08:36:30 51°25.218 2°54.591 11.9713 3.929285 34.193703 -1.139864
2009-11-13 08:36:35 51°25.233 2°54.596 11.9752 3.930218 34.199585 -1.139864
2009-11-13 08:36:40 51°25.249 2°54.603 11.9849 3.931048 34.202077 -1.139864
2009-11-13 08:36:45 51°25.265 2°54.606 11.9882 3.931359 34.19795 -1.139864
2009-11-13 08:36:50 51°25.281 2°54.614 11.9909 3.931877 34.195836 -1.139864
2009-11-13 08:36:55 51°25.297 2°54.617 11.9968 3.932395 34.19293 -1.139864
2009-11-13 08:37:00 51°25.313 2°54.624 12.0032 3.932395 34.19293 -1.139864
2009-11-13 08:37:05 51°25.329 2°54.629 12.0039 3.933536 34.198439 -1.139864
2009-11-13 08:37:10 51°25.345 2°54.635 12.0074 3.934469 34.201936 -1.139864
2009-11-13 08:37:15 51°25.362 2°54.641 12.0177 3.935506 34.206438 -1.139864
2009-11-13 08:37:20 51°25.378 2°54.646 12.0206 3.936232 34.207923 -1.139864
2009-11-13 08:37:25 51°25.395 2°54.654 12.0195 3.93675 34.206605 -1.139864
2009-11-13 08:37:30 51°25.411 2°54.658 12.0255 3.93675 34.206605 -1.139864
2009-11-13 08:37:35 51°25.428 2°54.664 12.0298 3.93758 34.210681 -1.10504
2009-11-13 08:37:40 51°25.445 2°54.67 12.0323 3.938513 34.214968 -1.139864
2009-11-13 08:37:45 51°25.461 2°54.676 12.0356 3.939757 34.222269 -1.139864
2009-11-13 08:37:50 51°25.478 2°54.681 12.0403 3.94038 34.222748 -1.139864
2009-11-13 08:37:55 51°25.494 2°54.687 12.0422 3.94152 34.229042 -1.139864
2009-11-13 08:38:00 51°25.511 2°54.692 12.0487 3.94152 34.229042 -1.139864
2009-11-13 08:38:05 51°25.527 2°54.697 12.0521 3.942661 34.236128 -1.10504
2009-11-13 08:38:10 51°25.544 2°54.702 12.0564 3.943594 34.241998 -1.139864
2009-11-13 08:38:15 51°25.561 2°54.706 12.0626 3.944631 34.248077 -1.10504
2009-11-13 08:38:20 51°25.577 2°54.712 12.069 3.945253 34.249346 -1.10504
2009-11-13 08:38:25 51°25.594 2°54.714 12.0721 3.945979 34.252411 -1.139864
2009-11-13 08:38:30 51°25.61 2°54.718 12.0753 3.945979 34.252411 -1.139864
2009-11-13 08:38:35 51°25.627 2°54.723 12.0743 3.946809 34.257273 -1.10504
2009-11-13 08:38:40 51°25.643 2°54.725 12.0811 3.947327 34.257537 -1.10504
2009-11-13 08:38:45 51°25.659 2°54.73 12.0838 3.948053 34.259015 -1.10504
2009-11-13 08:38:50 51°25.676 2°54.732 12.0885 3.948468 34.259067 -1.10504
2009-11-13 08:38:55 51°25.692 2°54.736 12.0971 3.949193 34.259753 -1.139864
2009-11-13 08:39:00 51°25.709 2°54.739 12.1 3.949193 34.259753 -1.139864
2009-11-13 08:39:05 51°25.726 2°54.744 12.1075 3.949919 34.262817 -1.139864
2009-11-13 08:39:10 51°25.742 2°54.747 12.1058 3.950541 34.265668 -1.10504
2009-11-13 08:39:15 51°25.758 2°54.751 12.1123 3.951371 34.269734 -1.10504
2009-11-13 08:39:20 51°25.775 2°54.754 12.1122 3.951889 34.270789 -1.10504
2009-11-13 08:39:25 51°25.791 2°54.757 12.1202 3.952512 34.271263 -1.10504
2009-11-13 08:39:30 51°25.807 2°54.762 12.1188 3.952512 34.271263 -1.10504
2009-11-13 08:39:35 51°25.824 2°54.764 12.123 3.952926 34.270523 -1.10504
2009-11-13 08:39:40 51°25.841 2°54.769 12.1286 3.953237 34.267988 -1.10504
2009-11-13 08:39:45 51°25.857 2°54.771 12.1297 3.953963 34.271049 -1.10504
2009-11-13 08:39:50 51°25.874 2°54.775 12.1362 3.954585 34.272316 -1.10504
2009-11-13 08:39:55 51°25.89 2°54.778 12.1364 3.955 34.27316 -1.10504
2009-11-13 08:40:00 51°25.906 2°54.784 12.1392 3.955 34.27316 -1.10504
2009-11-13 08:40:05 51°25.923 2°54.786 12.1436 3.955622 34.275217 -1.139864
2009-11-13 08:40:10 51°25.939 2°54.789 12.1442 3.956245 34.277274 -1.10504
2009-11-13 08:40:15 51°25.955 2°54.794 12.1502 3.956556 34.276324 -1.10504
2009-11-13 08:40:20 51°25.972 2°54.798 12.1465 3.957385 34.281177 -1.10504
2009-11-13 08:40:25 51°25.988 2°54.801 12.1483 3.9578 34.282021 -1.10504
2009-11-13 08:40:30 51°26.004 2°54.805 12.1553 3.9578 34.282021 -1.10504
2009-11-13 08:40:35 51°26.021 2°54.81 12.1569 3.958318 34.283866 -1.10504
2009-11-13 08:40:40 51°26.037 2°54.812 12.1629 3.958733 34.28471 -1.10504
2009-11-13 08:40:45 51°26.054 2°54.819 12.1603 3.959355 34.287557 -1.10504
2009-11-13 08:40:50 51°26.07 2°54.821 12.1625 3.95977 34.289191 -1.10504
2009-11-13 08:40:55 51°26.087 2°54.825 12.1631 3.960496 34.294623 -1.10504
2009-11-13 08:41:00 51°26.104 2°54.829 12.1707 3.960496 34.294623 -1.10504
2009-11-13 08:41:05 51°26.12 2°54.834 12.1715 3.960392 34.290456 -1.10504
2009-11-13 08:41:10 51°26.137 2°54.837 12.1737 3.9606 34.288504 -1.10504
2009-11-13 08:41:15 51°26.153 2°54.842 12.174 3.960807 34.286552 -1.10504
2009-11-13 08:41:20 51°26.17 2°54.846 12.1797 3.961533 34.291191 -1.10504
2009-11-13 08:41:25 51°26.187 2°54.848 12.1809 3.962259 34.296621 -1.10504
2009-11-13 08:41:30 51°26.203 2°54.854 12.1822 3.962259 34.296621 -1.10504
2009-11-13 08:41:35 51°26.22 2°54.858 12.1848 3.962466 34.296251 -1.10504
2009-11-13 08:41:40 51°26.237 2°54.861 12.1845 3.962777 34.296092 -1.10504
2009-11-13 08:41:45 51°26.253 2°54.867 12.19 3.963192 34.298516 -1.10504
2009-11-13 08:41:50 51°26.27 2°54.87 12.1906 3.963607 34.299358 -1.10504
2009-11-13 08:41:55 51°26.287 2°54.874 12.1917 3.964022 34.300991 -1.10504
2009-11-13 08:42:00 51°26.303 2°54.878 12.2006 3.964022 34.300991 -1.10504
2009-11-13 08:42:05 51°26.32 2°54.882 12.1993 3.96454 34.303625 -1.10504
2009-11-13 08:42:10 51°26.337 2°54.885 12.2031 3.965162 34.307261 -1.10504
2009-11-13 08:42:15 51°26.353 2°54.891 12.2049 3.965681 34.310685 -1.10504
2009-11-13 08:42:20 51°26.37 2°54.893 12.2086 3.965992 34.311316 -1.10504
2009-11-13 08:42:25 51°26.386 2°54.899 12.2072 3.966407 34.312948 -1.10504
2009-11-13 08:42:30 51°26.403 2°54.902 12.2122 3.966407 34.312948 -1.10504
2009-11-13 08:42:35 51°26.42 2°54.906 12.2139 3.966199 34.306993 -1.10504
2009-11-13 08:42:40 51°26.437 2°54.912 12.2138 3.96651 34.306834 -1.10504
2009-11-13 08:42:45 51°26.454 2°54.914 12.2165 3.967132 34.309677 -1.10504
2009-11-13 08:42:50 51°26.471 2°54.919 12.2183 3.967547 34.311309 -1.10504
2009-11-13 08:42:55 51°26.487 2°54.923 12.2219 3.968066 34.313941 -1.10504
2009-11-13 08:43:00 51°26.505 2°54.927 12.2228 3.968066 34.313941 -1.10504
2009-11-13 08:43:05 51°26.521 2°54.93 12.2277 3.968792 34.318575 -1.10504
2009-11-13 08:43:10 51°26.538 2°54.935 12.2318 3.969206 34.320997 -1.10504
2009-11-13 08:43:15 51°26.555 2°54.939 12.2316 3.969725 34.323629 -1.10504
2009-11-13 08:43:20 51°26.571 2°54.941 12.2329 3.970036 34.324259 -1.10504
2009-11-13 08:43:25 51°26.588 2°54.947 12.2335 3.970347 34.324889 -1.10504
2009-11-13 08:43:30 51°26.605 2°54.951 12.237 3.970347 34.324889 -1.10504
2009-11-13 08:43:35 51°26.621 2°54.953 12.2375 3.970658 34.324729 -1.10504
2009-11-13 08:43:40 51°26.638 2°54.958 12.2446 3.970969 34.32536 -1.10504
2009-11-13 08:43:45 51°26.655 2°54.961 12.2418 3.97128 34.32599 -1.10504
2009-11-13 08:43:50 51°26.671 2°54.965 12.2457 3.971799 34.328621 -1.10504
2009-11-13 08:43:55 51°26.688 2°54.969 12.2439 3.97211 34.329251 -1.10504
2009-11-13 08:44:00 51°26.705 2°54.971 12.2472 3.97211 34.329251 -1.10504
2009-11-13 08:44:05 51°26.722 2°54.976 12.2476 3.972525 34.330881 -1.10504
2009-11-13 08:44:10 51°26.739 2°54.979 12.2538 3.97294 34.333302 -1.10504
2009-11-13 08:44:15 51°26.756 2°54.985 12.2525 3.972836 34.329141 -1.10504
2009-11-13 08:44:20 51°26.773 2°54.986 12.2551 3.973251 34.330772 -1.10504
2009-11-13 08:44:25 51°26.79 2°54.992 12.2584 3.973458 34.331982 -1.10504
2009-11-13 08:44:30 51°26.807 2°54.995 12.2609 3.973458 34.331982 -1.10504
2009-11-13 08:44:35 51°26.823 2°55.001 12.2591 3.973562 34.331402 -1.10504
2009-11-13 08:44:40 51°26.84 2°55.003 12.2662 3.973976 34.333032 -1.10504
2009-11-13 08:44:45 51°26.857 2°55.008 12.2629 3.974288 34.334451 -1.10504
2009-11-13 08:44:50 51°26.874 2°55.013 12.2658 3.974288 34.331292 -1.10504
2009-11-13 08:44:55 51°26.891 2°55.017 12.266 3.974287 34.329713 -1.10504
2009-11-13 08:45:00 51°26.908 2°55.022 12.2682 3.974287 34.329713 -1.10504
2009-11-13 08:45:05 51°26.925 2°55.025 12.2703 3.974184 34.326345 -1.10504
2009-11-13 08:45:10 51°26.942 2°55.031 12.2679 3.974599 34.327975 -1.10504
2009-11-13 08:45:15 51°26.959 2°55.034 12.2717 3.974391 34.323607 -1.10504
2009-11-13 08:45:20 51°26.976 2°55.04 12.2779 3.974702 34.325817 -1.10504
2009-11-13 08:45:25 51°26.993 2°55.043 12.2785 3.975117 34.327446 -1.10504
2009-11-13 08:45:30 51°27.01 2°55.047 12.2822 3.975117 34.327446 -1.10504
2009-11-13 08:45:35 51°27.027 2°55.052 12.2857 3.97491 34.323869 -1.10504
2009-11-13 08:45:40 51°27.043 2°55.056 12.2874 3.97491 34.32308 -1.10504
2009-11-13 08:45:45 51°27.06 2°55.058 12.2913 3.975635 34.328497 -1.10504
2009-11-13 08:45:50 51°27.077 2°55.064 12.2909 3.975843 34.328917 -1.10504
2009-11-13 08:45:55 51°27.094 2°55.066 12.293 3.976258 34.330547 -1.10504
2009-11-13 08:46:00 51°27.111 2°55.071 12.2938 3.976258 34.330547 -1.10504
2009-11-13 08:46:05 51°27.128 2°55.076 12.2941 3.977087 34.335384 -1.10504
2009-11-13 08:46:10 51°27.145 2°55.079 12.2969 3.977295 34.335014 -1.10504
2009-11-13 08:46:15 51°27.162 2°55.083 12.2996 3.978021 34.338851 -1.10504
2009-11-13 08:46:20 51°27.179 2°55.087 12.2994 3.978435 34.339691 -1.10504
2009-11-13 08:46:25 51°27.197 2°55.09 12.3007 3.978954 34.342319 -1.10504
2009-11-13 08:46:30 51°27.213 2°55.095 12.3006 3.978954 34.342319 -1.10504
2009-11-13 08:46:35 51°27.23 2°55.1 12.3038 3.979369 34.345525 -1.10504
2009-11-13 08:46:40 51°27.247 2°55.102 12.3063 3.979576 34.345945 -1.070216
2009-11-13 08:46:45 51°27.264 2°55.109 12.3099 3.980095 34.349361 -1.10504
2009-11-13 08:46:50 51°27.281 2°55.11 12.3116 3.980095 34.346994 -1.10504
2009-11-13 08:46:55 51°27.298 2°55.117 12.3161 3.980406 34.347623 -1.070216
2009-11-13 08:47:00 51°27.315 2°55.119 12.3252 3.980406 34.347623 -1.070216
2009-11-13 08:47:05 51°27.331 2°55.125 12.3452 3.98082 34.350829 -1.10504
2009-11-13 08:47:10 51°27.348 2°55.127 12.354 3.980924 34.35025 -1.070216
2009-11-13 08:47:15 51°27.365 2°55.133 12.3696 3.981443 34.353665 -1.10504
2009-11-13 08:47:20 51°27.381 2°55.137 12.3769 3.981546 34.351508 -1.10504
2009-11-13 08:47:25 51°27.398 2°55.141 12.3901 3.981961 34.352347 -1.070216
2009-11-13 08:47:30 51°27.415 2°55.144 12.4022 3.981961 34.352347 -1.070216
2009-11-13 08:47:35 51°27.432 2°55.149 12.414 3.982272 34.35061 -1.070216
2009-11-13 08:47:40 51°27.449 2°55.152 12.4226 3.983517 34.352338 -1.070216
2009-11-13 08:47:45 51°27.466 2°55.157 12.4318 3.984968 34.357638 -1.070216
2009-11-13 08:47:50 51°27.483 2°55.158 12.4401 3.987665 34.371757 -1.070216
2009-11-13 08:47:55 51°27.499 2°55.164 12.4535 3.989946 34.381879 -1.070216
2009-11-13 08:48:00 51°27.516 2°55.168 12.4647 3.989946 34.381879 -1.070216
2009-11-13 08:48:05 51°27.533 2°55.171 12.4713 3.99202 34.389214 -1.070216
2009-11-13 08:48:10 51°27.55 2°55.176 12.4846 3.993887 34.394552 -1.070216
2009-11-13 08:48:15 51°27.566 2°55.18 12.4876 3.99565 34.39968 -1.070216
2009-11-13 08:48:20 51°27.583 2°55.184 12.496 3.996998 34.402395 -1.070216
2009-11-13 08:48:25 51°27.599 2°55.186 12.503 3.998761 34.40752 -1.070216
2009-11-13 08:48:30 51°27.616 2°55.191 12.5115 3.998761 34.40752 -1.070216
2009-11-13 08:48:35 51°27.633 2°55.193 12.5175 4.00042 34.412434 -1.070216
2009-11-13 08:48:40 51°27.65 2°55.197 12.5226 4.00239 34.42112 -1.070216
2009-11-13 08:48:45 51°27.666 2°55.2 12.5288 4.004361 34.429803 -1.070216
2009-11-13 08:48:50 51°27.683 2°55.205 12.5354 4.005916 34.436863 -1.070216
2009-11-13 08:48:55 51°27.699 2°55.206 12.5425 4.007161 34.439362 -1.070216
2009-11-13 08:49:00 51°27.716 2°55.211 12.5529 4.007161 34.439362 -1.070216
2009-11-13 08:49:05 51°27.732 2°55.212 12.5566 4.008302 34.440865 -1.070216
2009-11-13 08:49:10 51°27.749 2°55.217 12.5657 4.009235 34.442739 -1.070216
2009-11-13 08:49:15 51°27.765 2°55.221 12.5692 4.010583 34.44859 -1.070216
2009-11-13 08:49:20 51°27.782 2°55.225 12.5783 4.011828 34.453446 -1.035392
2009-11-13 08:49:25 51°27.799 2°55.229 12.5878 4.012968 34.45652 -1.035392
2009-11-13 08:49:30 51°27.815 2°55.233 12.5952 4.012968 34.45652 -1.035392
2009-11-13 08:49:35 51°27.832 2°55.237 12.6006 4.013902 34.459177 -1.070216
2009-11-13 08:49:40 51°27.849 2°55.24 12.6053 4.015146 34.462458 -1.035392
2009-11-13 08:49:45 51°27.865 2°55.244 12.611 4.016183 34.466108 -1.070216
2009-11-13 08:49:50 51°27.882 2°55.248 12.6158 4.017635 34.471374 -1.035392
2009-11-13 08:49:55 51°27.898 2°55.252 12.6241 4.018776 34.475229 -1.035392
2009-11-13 08:50:00 51°27.915 2°55.256 12.6304 4.018776 34.475229 -1.035392
2009-11-13 08:50:05 51°27.932 2°55.261 12.6339 4.02002 34.477721 -1.035392
2009-11-13 08:50:10 51°27.948 2°55.264 12.6404 4.021472 34.483768 -1.035392
2009-11-13 08:50:15 51°27.965 2°55.269 12.6457 4.022613 34.488406 -1.035392